Time,TemperatureF,DewpointF,PressureIn,WindDirection,WindDirectionDegrees,WindSpeedMPH,WindSpeedGustMPH,Humidity,HourlyPrecipIn,Conditions,Clouds,dailyrainin,SolarRadiationWatts/m^2,SoftwareType,DateUTC
2013-02-20 00:00:00,5.5,-0.1,30.46,North,360,2.0,9.0,77,0.00,,OVC027,0.00,0.00,VWS V14.00,2013-02-20 06:00:00,
2013-02-20 00:01:00,5.5,0.1,30.47,North,5,3.0,6.0,78,0.00,,CLR,0.00,0.00,VWS V14.00,2013-02-20 06:01:00,
2013-02-20 00:02:00,5.5,0.1,30.47,North,350,5.0,6.0,78,0.00,,CLR,0.00,0.00,VWS V14.00,2013-02-20 06:02:00,
2013-02-20 00:03:00,5.4,0.0,30.47,North,5,2.0,6.0,78,0.00,,CLR,0.00,0.00,VWS V14.00,2013-02-20 06:03:00,
2013-02-20 00:05:00,5.4,0.0,30.47,North,5,5.0,7.0,78,0.00,,OVC027,0.00,0.00,VWS V14.00,2013-02-20 06:05:00,
2013-02-20 00:06:00,5.3,-0.1,30.47,NNW,342,4.0,6.0,78,0.00,,CLR,0.00,0.00,VWS V14.00,2013-02-20 06:06:00,
2013-02-20 00:07:00,5.3,-0.1,30.47,North,360,6.0,6.0,78,0.00,,CLR,0.00,0.00,VWS V14.00,2013-02-20 06:07:00,
2013-02-20 00:08:00,5.3,-0.1,30.47,NNW,337,4.0,7.0,78,0.00,,CLR,0.00,0.00,VWS V14.00,2013-02-20 06:08:00,
2013-02-20 00:10:00,5.3,-0.1,30.47,NNW,342,6.0,7.0,78,0.00,,OVC027,0.00,0.00,VWS V14.00,2013-02-20 06:10:00,
2013-02-20 00:11:00,5.2,-0.2,30.47,NNE,22,3.0,7.0,78,0.00,,CLR,0.00,0.00,VWS V14.00,2013-02-20 06:11:00,
2013-02-20 00:12:00,5.2,-0.2,30.47,NNE,17,3.0,7.0,78,0.00,,CLR,0.00,0.00,VWS V14.00,2013-02-20 06:12:00,
2013-02-20 00:13:00,5.1,-0.2,30.47,North,9,2.0,7.0,78,0.00,,CLR,0.00,0.00,VWS V14.00,2013-02-20 06:13:00,
2013-02-20 00:15:00,5.1,-0.2,30.47,North,5,3.0,7.0,78,0.00,,OVC027,0.00,0.00,VWS V14.00,2013-02-20 06:15:00,
2013-02-20 00:17:00,5.1,-0.2,30.47,North,360,2.0,5.0,78,0.00,,CLR,0.00,0.00,VWS V14.00,2013-02-20 06:17:00,
2013-02-20 00:18:00,5.0,-0.3,30.47,North,350,5.0,6.0,78,0.00,,CLR,0.00,0.00,VWS V14.00,2013-02-20 06:18:00,
2013-02-20 00:20:00,5.0,-0.3,30.48,North,5,4.0,6.0,78,0.00,,OVC027,0.00,0.00,VWS V14.00,2013-02-20 06:20:00,
2013-02-20 00:22:00,5.0,2.2,30.48,NW,321,4.0,8.0,88,0.00,,CLR,0.00,0.00,VWS V14.00,2013-02-20 06:22:00,
2013-02-20 00:23:00,4.9,-0.4,30.48,North,360,5.0,8.0,78,0.00,,CLR,0.00,0.00,VWS V14.00,2013-02-20 06:23:00,
2013-02-20 00:25:00,4.9,-0.4,30.48,NNE,13,7.0,8.0,78,0.00,,OVC027,0.00,0.00,VWS V14.00,2013-02-20 06:25:00,
2013-02-20 00:27:00,4.9,-0.4,30.48,NNW,346,8.0,9.0,78,0.00,,CLR,0.00,0.00,VWS V14.00,2013-02-20 06:27:00,
2013-02-20 00:28:00,4.9,-0.4,30.48,NW,315,6.0,9.0,78,0.00,,CLR,0.00,0.00,VWS V14.00,2013-02-20 06:28:00,
2013-02-20 00:29:00,4.9,-0.4,30.47,North,5,9.0,9.0,78,0.00,,CLR,0.00,0.00,VWS V14.00,2013-02-20 06:29:00,
2013-02-20 00:30:00,4.9,-0.4,30.48,NNW,344,5.0,9.0,78,0.00,,OVC027,0.00,0.00,VWS V14.00,2013-02-20 06:30:00,
2013-02-20 00:32:00,4.9,-0.7,30.48,North,355,8.0,9.0,77,0.00,,CLR,0.00,0.00,VWS V14.00,2013-02-20 06:32:00,
2013-02-20 00:33:00,4.9,-1.0,30.48,North,355,6.0,9.0,76,0.00,,CLR,0.00,0.00,VWS V14.00,2013-02-20 06:33:00,
2013-02-20 00:35:00,4.8,-1.1,30.48,NNW,337,3.0,10.0,76,0.00,,CLR,0.00,0.00,VWS V14.00,2013-02-20 06:35:00,
2013-02-20 00:37:00,4.7,-1.2,30.48,North,351,6.0,10.0,76,0.00,,CLR,0.00,0.00,VWS V14.00,2013-02-20 06:37:00,
2013-02-20 00:38:00,4.7,-1.2,30.47,NNW,329,8.0,10.0,76,0.00,,CLR,0.00,0.00,VWS V14.00,2013-02-20 06:38:00,
2013-02-20 00:40:00,4.7,-1.2,30.47,North,360,12.0,12.0,76,0.00,,CLR,0.00,0.00,VWS V14.00,2013-02-20 06:40:00,
2013-02-20 00:42:00,4.6,-1.3,30.47,North,355,7.0,12.0,76,0.00,,CLR,0.00,0.00,VWS V14.00,2013-02-20 06:42:00,
2013-02-20 00:43:00,4.6,-1.3,30.47,NE,36,7.0,12.0,76,0.00,,CLR,0.00,0.00,VWS V14.00,2013-02-20 06:43:00,
2013-02-20 00:45:00,4.6,-1.3,30.47,NNW,347,4.0,10.0,76,0.00,,CLR,0.00,0.00,VWS V14.00,2013-02-20 06:45:00,
2013-02-20 00:47:00,4.5,-1.4,30.48,North,355,8.0,12.0,76,0.00,,CLR,0.00,0.00,VWS V14.00,2013-02-20 06:47:00,
2013-02-20 00:48:00,4.5,-1.4,30.47,North,355,9.0,12.0,76,0.00,,CLR,0.00,0.00,VWS V14.00,2013-02-20 06:48:00,
2013-02-20 00:50:00,4.5,-1.4,30.47,NNW,344,8.0,9.0,76,0.00,,CLR,0.00,0.00,VWS V14.00,2013-02-20 06:50:00,
2013-02-20 00:53:00,4.5,-1.4,30.47,North,360,7.0,10.0,76,0.00,,CLR,0.00,0.00,VWS V14.00,2013-02-20 06:53:00,
2013-02-20 00:55:00,4.5,-1.7,30.47,North,355,7.0,8.0,75,0.00,,CLR,0.00,0.00,VWS V14.00,2013-02-20 06:55:00,
2013-02-20 00:58:00,4.4,-1.8,30.48,NNE,12,6.0,8.0,75,0.00,,CLR,0.00,0.00,VWS V14.00,2013-02-20 06:58:00,
2013-02-20 00:59:00,4.4,-1.8,30.48,NNW,346,7.0,7.0,75,0.00,,CLR,0.00,0.00,VWS V14.00,2013-02-20 06:59:00,
2013-02-20 01:00:00,4.4,-1.8,30.48,North,355,2.0,8.0,75,0.00,,CLR,0.00,0.00,VWS V14.00,2013-02-20 07:00:00,
2013-02-20 01:03:00,4.3,-1.9,30.48,NNE,14,2.0,8.0,75,0.00,,CLR,0.00,0.00,VWS V14.00,2013-02-20 07:03:00,
2013-02-20 01:04:00,4.3,-1.9,30.48,North,355,3.0,3.0,75,0.00,,CLR,0.00,0.00,VWS V14.00,2013-02-20 07:04:00,
2013-02-20 01:05:00,4.2,-2.0,30.48,NE,42,3.0,5.0,75,0.00,,CLR,0.00,0.00,VWS V14.00,2013-02-20 07:05:00,
2013-02-20 01:08:00,4.2,-2.0,30.48,NNW,348,2.0,8.0,75,0.00,,CLR,0.00,0.00,VWS V14.00,2013-02-20 07:08:00,
2013-02-20 01:09:00,4.2,-2.0,30.48,North,355,3.0,4.0,75,0.00,,CLR,0.00,0.00,VWS V14.00,2013-02-20 07:09:00,
2013-02-20 01:10:00,4.2,-2.0,30.48,North,349,4.0,5.0,75,0.00,,CLR,0.00,0.00,VWS V14.00,2013-02-20 07:10:00,
2013-02-20 01:13:00,4.2,-2.0,30.48,North,9,3.0,7.0,75,0.00,,CLR,0.00,0.00,VWS V14.00,2013-02-20 07:13:00,
2013-02-20 01:14:00,4.1,-2.0,30.48,North,355,4.0,7.0,75,0.00,,CLR,0.00,0.00,VWS V14.00,2013-02-20 07:14:00,
2013-02-20 01:15:00,4.1,-2.0,30.48,NNW,346,6.0,7.0,75,0.00,,OVC027,0.00,0.00,VWS V14.00,2013-02-20 07:15:00,
2013-02-20 01:16:00,4.1,-2.0,30.48,North,355,4.0,7.0,75,0.00,,CLR,0.00,0.00,VWS V14.00,2013-02-20 07:16:00,
2013-02-20 01:18:00,4.1,-1.8,30.49,North,351,3.0,8.0,76,0.00,,CLR,0.00,0.00,VWS V14.00,2013-02-20 07:18:00,
2013-02-20 01:19:00,4.0,-1.9,30.49,North,360,4.0,8.0,76,0.00,,CLR,0.00,0.00,VWS V14.00,2013-02-20 07:19:00,
2013-02-20 01:20:00,4.1,-1.8,30.49,NNW,342,6.0,8.0,76,0.00,,OVC027,0.00,0.00,VWS V14.00,2013-02-20 07:20:00,
2013-02-20 01:21:00,4.0,-1.9,30.49,North,5,6.0,8.0,76,0.00,,CLR,0.00,0.00,VWS V14.00,2013-02-20 07:21:00,
2013-02-20 01:24:00,4.0,-1.9,30.48,NNE,14,2.0,8.0,76,0.00,,CLR,0.00,0.00,VWS V14.00,2013-02-20 07:24:00,
2013-02-20 01:25:00,4.0,-1.9,30.48,North,9,3.0,6.0,76,0.00,,CLR,0.00,0.00,VWS V14.00,2013-02-20 07:25:00,
2013-02-20 01:26:00,3.9,-2.0,30.49,NNW,343,3.0,6.0,76,0.00,,CLR,0.00,0.00,VWS V14.00,2013-02-20 07:26:00,
2013-02-20 01:29:00,3.9,-2.0,30.48,North,355,3.0,6.0,76,0.00,,CLR,0.00,0.00,VWS V14.00,2013-02-20 07:29:00,
2013-02-20 01:30:00,3.9,-2.0,30.48,NNE,15,1.0,4.0,76,0.00,,CLR,0.00,0.00,VWS V14.00,2013-02-20 07:30:00,
2013-02-20 01:31:00,3.8,-2.1,30.48,North,360,5.0,5.0,76,0.00,,CLR,0.00,0.00,VWS V14.00,2013-02-20 07:31:00,
2013-02-20 01:34:00,3.8,-2.1,30.48,North,355,4.0,7.0,76,0.00,,CLR,0.00,0.00,VWS V14.00,2013-02-20 07:34:00,
2013-02-20 01:35:00,3.8,-2.1,30.48,NNW,342,5.0,7.0,76,0.00,,CLR,0.00,0.00,VWS V14.00,2013-02-20 07:35:00,
2013-02-20 01:37:00,3.7,-2.2,30.48,North,360,5.0,7.0,76,0.00,,CLR,0.00,0.00,VWS V14.00,2013-02-20 07:37:00,
2013-02-20 01:39:00,3.7,-2.2,30.48,NNW,340,8.0,8.0,76,0.00,,CLR,0.00,0.00,VWS V14.00,2013-02-20 07:39:00,
2013-02-20 01:40:00,3.7,-2.2,30.48,NNW,346,8.0,9.0,76,0.00,,CLR,0.00,0.00,VWS V14.00,2013-02-20 07:40:00,
2013-02-20 01:42:00,3.7,-2.2,30.48,North,355,7.0,9.0,76,0.00,,CLR,0.00,0.00,VWS V14.00,2013-02-20 07:42:00,
2013-02-20 01:44:00,3.7,-2.2,30.48,North,350,7.0,10.0,76,0.00,,CLR,0.00,0.00,VWS V14.00,2013-02-20 07:44:00,
2013-02-20 01:45:00,3.7,-2.2,30.48,NNW,332,5.0,7.0,76,0.00,,CLR,0.00,0.00,VWS V14.00,2013-02-20 07:45:00,
2013-02-20 01:47:00,3.7,-2.2,30.48,NNW,329,3.0,9.0,76,0.00,,CLR,0.00,0.00,VWS V14.00,2013-02-20 07:47:00,
2013-02-20 01:49:00,3.6,-2.3,30.48,NNW,344,3.0,4.0,76,0.00,,CLR,0.00,0.00,VWS V14.00,2013-02-20 07:49:00,
2013-02-20 01:50:00,3.6,-2.3,30.48,North,350,5.0,6.0,76,0.00,,CLR,0.00,0.00,VWS V14.00,2013-02-20 07:50:00,
2013-02-20 01:51:00,3.6,-2.3,30.48,NNW,347,3.0,6.0,76,0.00,,CLR,0.00,0.00,VWS V14.00,2013-02-20 07:51:00,
2013-02-20 01:52:00,3.6,-2.3,30.48,North,5,5.0,6.0,76,0.00,,CLR,0.00,0.00,VWS V14.00,2013-02-20 07:52:00,
2013-02-20 01:54:00,3.5,-2.3,30.48,NNW,338,4.0,9.0,76,0.00,,CLR,0.00,0.00,VWS V14.00,2013-02-20 07:54:00,
2013-02-20 01:55:00,3.5,-2.3,30.48,North,350,4.0,9.0,76,0.00,,CLR,0.00,0.00,VWS V14.00,2013-02-20 07:55:00,
2013-02-20 01:56:00,3.5,-2.3,30.48,NNW,345,4.0,9.0,76,0.00,,CLR,0.00,0.00,VWS V14.00,2013-02-20 07:56:00,
2013-02-20 01:58:00,3.5,-2.3,30.48,North,9,7.0,9.0,76,0.00,,CLR,0.00,0.00,VWS V14.00,2013-02-20 07:58:00,
2013-02-20 02:00:00,3.5,-2.3,30.48,North,360,5.0,5.0,76,0.00,,CLR,0.00,0.00,VWS V14.00,2013-02-20 08:00:00,
2013-02-20 02:01:00,3.5,-2.3,30.48,NNW,347,7.0,10.0,76,0.00,,CLR,0.00,0.00,VWS V14.00,2013-02-20 08:01:00,
2013-02-20 02:05:00,3.4,-2.5,30.48,North,355,3.0,7.0,76,0.00,,CLR,0.00,0.00,VWS V14.00,2013-02-20 08:05:00,
2013-02-20 02:06:00,3.4,-2.5,30.48,North,355,2.0,7.0,76,0.00,,CLR,0.00,0.00,VWS V14.00,2013-02-20 08:06:00,
2013-02-20 02:10:00,3.3,-2.5,30.48,North,355,4.0,6.0,76,0.00,,CLR,0.00,0.00,VWS V14.00,2013-02-20 08:10:00,
2013-02-20 02:11:00,3.3,-2.5,30.48,NNE,31,1.0,6.0,76,0.00,,CLR,0.00,0.00,VWS V14.00,2013-02-20 08:11:00,
2013-02-20 02:12:00,3.3,-2.5,30.48,North,350,4.0,6.0,76,0.00,,CLR,0.00,0.00,VWS V14.00,2013-02-20 08:12:00,
2013-02-20 02:15:00,3.2,-2.6,30.48,NNE,17,2.0,8.0,76,0.00,,OVC027,0.00,0.00,VWS V14.00,2013-02-20 08:15:00,
2013-02-20 02:16:00,3.2,-2.6,30.48,North,9,4.0,7.0,76,0.00,,CLR,0.00,0.00,VWS V14.00,2013-02-20 08:16:00,
2013-02-20 02:17:00,3.2,-2.6,30.48,North,9,5.0,7.0,76,0.00,,CLR,0.00,0.00,VWS V14.00,2013-02-20 08:17:00,
2013-02-20 02:20:00,3.1,-2.7,30.48,North,360,1.0,9.0,76,0.00,,OVC027,0.00,0.00,VWS V14.00,2013-02-20 08:20:00,
2013-02-20 02:21:00,3.1,-2.7,30.48,NNE,15,5.0,8.0,76,0.00,,CLR,0.00,0.00,VWS V14.00,2013-02-20 08:21:00,
2013-02-20 02:22:00,3.1,-2.7,30.48,NNW,344,4.0,10.0,76,0.00,,CLR,0.00,0.00,VWS V14.00,2013-02-20 08:22:00,
2013-02-20 02:25:00,3.1,-2.7,30.48,North,349,8.0,10.0,76,0.00,,OVC027,0.00,0.00,VWS V14.00,2013-02-20 08:25:00,
2013-02-20 02:26:00,3.0,-2.8,30.48,NNW,340,5.0,9.0,76,0.00,,CLR,0.00,0.00,VWS V14.00,2013-02-20 08:26:00,
2013-02-20 02:27:00,3.0,-3.1,30.48,NNW,333,6.0,9.0,75,0.00,,CLR,0.00,0.00,VWS V14.00,2013-02-20 08:27:00,
2013-02-20 02:30:00,2.9,-3.2,30.48,NNW,344,7.0,9.0,75,0.00,,OVC027,0.00,0.00,VWS V14.00,2013-02-20 08:30:00,
2013-02-20 02:31:00,2.9,-3.2,30.49,North,351,5.0,9.0,75,0.00,,CLR,0.00,0.00,VWS V14.00,2013-02-20 08:31:00,
2013-02-20 02:32:00,2.9,-3.2,30.49,NNE,17,6.0,9.0,75,0.00,,CLR,0.00,0.00,VWS V14.00,2013-02-20 08:32:00,
2013-02-20 02:33:00,2.9,-3.2,30.49,NNW,338,6.0,10.0,75,0.00,,CLR,0.00,0.00,VWS V14.00,2013-02-20 08:33:00,
2013-02-20 02:35:00,2.9,-3.2,30.49,NNE,13,5.0,10.0,75,0.00,,OVC027,0.00,0.00,VWS V14.00,2013-02-20 08:35:00,
2013-02-20 02:36:00,2.8,-3.0,30.49,NNW,343,7.0,7.0,76,0.00,,CLR,0.00,0.00,VWS V14.00,2013-02-20 08:36:00,
2013-02-20 02:38:00,2.8,-3.0,30.49,NNW,338,4.0,8.0,76,0.00,,CLR,0.00,0.00,VWS V14.00,2013-02-20 08:38:00,
2013-02-20 02:40:00,2.8,-3.0,30.49,NNW,338,3.0,8.0,76,0.00,,OVC027,0.00,0.00,VWS V14.00,2013-02-20 08:40:00,
2013-02-20 02:41:00,2.8,-3.0,30.49,North,355,0.0,6.0,76,0.00,,CLR,0.00,0.00,VWS V14.00,2013-02-20 08:41:00,
2013-02-20 02:43:00,2.8,-3.0,30.49,NNW,329,5.0,6.0,76,0.00,,CLR,0.00,0.00,VWS V14.00,2013-02-20 08:43:00,
2013-02-20 02:45:00,2.8,-3.0,30.49,NNE,18,5.0,6.0,76,0.00,,OVC027,0.00,0.00,VWS V14.00,2013-02-20 08:45:00,
2013-02-20 02:46:00,2.7,-2.9,30.49,North,5,3.0,8.0,77,0.00,,CLR,0.00,0.00,VWS V14.00,2013-02-20 08:46:00,
2013-02-20 02:48:00,2.7,-2.9,30.49,North,355,2.0,8.0,77,0.00,,CLR,0.00,0.00,VWS V14.00,2013-02-20 08:48:00,
2013-02-20 02:50:00,2.6,-3.0,30.49,North,355,2.0,8.0,77,0.00,,OVC027,0.00,0.00,VWS V14.00,2013-02-20 08:50:00,
2013-02-20 02:51:00,2.6,-3.0,30.49,North,355,6.0,6.0,77,0.00,,CLR,0.00,0.00,VWS V14.00,2013-02-20 08:51:00,
2013-02-20 02:53:00,2.6,-3.0,30.49,NNW,343,7.0,8.0,77,0.00,,CLR,0.00,0.00,VWS V14.00,2013-02-20 08:53:00,
2013-02-20 02:55:00,2.6,-3.0,30.49,North,355,5.0,9.0,77,0.00,,OVC027,0.00,0.00,VWS V14.00,2013-02-20 08:55:00,
2013-02-20 02:56:00,2.6,-3.0,30.49,North,355,2.0,8.0,77,0.00,,CLR,0.00,0.00,VWS V14.00,2013-02-20 08:56:00,
2013-02-20 02:57:00,2.6,-3.0,30.49,North,355,6.0,8.0,77,0.00,,CLR,0.00,0.00,VWS V14.00,2013-02-20 08:57:00,
2013-02-20 02:58:00,2.6,-3.0,30.49,North,350,8.0,8.0,77,0.00,,CLR,0.00,0.00,VWS V14.00,2013-02-20 08:58:00,
2013-02-20 03:00:00,2.5,-3.0,30.49,North,5,10.0,10.0,77,0.00,,OVC027,0.00,0.00,VWS V14.00,2013-02-20 09:00:00,
2013-02-20 03:02:00,2.5,-3.3,30.49,NNW,335,4.0,10.0,76,0.00,,CLR,0.00,0.00,VWS V14.00,2013-02-20 09:02:00,
2013-02-20 03:03:00,2.5,-3.3,30.49,North,351,2.0,10.0,76,0.00,,CLR,0.00,0.00,VWS V14.00,2013-02-20 09:03:00,
2013-02-20 03:05:00,2.5,-3.3,30.49,NNW,348,3.0,10.0,76,0.00,,OVC027,0.00,0.00,VWS V14.00,2013-02-20 09:05:00,
2013-02-20 03:07:00,2.4,-3.4,30.49,North,349,7.0,11.0,76,0.00,,CLR,0.00,0.00,VWS V14.00,2013-02-20 09:07:00,
2013-02-20 03:08:00,2.4,-3.2,30.49,North,355,6.0,11.0,77,0.00,,CLR,0.00,0.00,VWS V14.00,2013-02-20 09:08:00,
2013-02-20 03:09:00,2.4,-3.2,30.49,North,350,2.0,11.0,77,0.00,,CLR,0.00,0.00,VWS V14.00,2013-02-20 09:09:00,
2013-02-20 03:10:00,2.4,-3.2,30.49,North,350,2.0,11.0,77,0.00,,OVC027,0.00,0.00,VWS V14.00,2013-02-20 09:10:00,
2013-02-20 03:12:00,2.4,-3.4,30.49,NNW,345,3.0,7.0,76,0.00,,CLR,0.00,0.00,VWS V14.00,2013-02-20 09:12:00,
2013-02-20 03:13:00,2.4,-3.4,30.49,NNW,339,4.0,7.0,76,0.00,,CLR,0.00,0.00,VWS V14.00,2013-02-20 09:13:00,
2013-02-20 03:14:00,2.4,-3.4,30.49,North,360,4.0,4.0,76,0.00,,CLR,0.00,0.00,VWS V14.00,2013-02-20 09:14:00,
2013-02-20 03:15:00,2.4,-3.4,30.49,North,360,4.0,7.0,76,0.00,,OVC027,0.00,0.00,VWS V14.00,2013-02-20 09:15:00,
2013-02-20 03:17:00,2.3,-3.5,30.49,NNE,26,6.0,10.0,76,0.00,,CLR,0.00,0.00,VWS V14.00,2013-02-20 09:17:00,
2013-02-20 03:18:00,2.3,-3.5,30.48,North,355,8.0,10.0,76,0.00,,CLR,0.00,0.00,VWS V14.00,2013-02-20 09:18:00,
2013-02-20 03:19:00,2.3,-3.5,30.48,NNW,339,5.0,5.0,76,0.00,,CLR,0.00,0.00,VWS V14.00,2013-02-20 09:19:00,
2013-02-20 03:20:00,2.3,-3.5,30.48,North,360,5.0,10.0,76,0.00,,OVC027,0.00,0.00,VWS V14.00,2013-02-20 09:20:00,
2013-02-20 03:22:00,2.2,-3.6,30.49,North,5,7.0,10.0,76,0.00,,CLR,0.00,0.00,VWS V14.00,2013-02-20 09:22:00,
2013-02-20 03:23:00,2.2,-3.6,30.48,NNW,344,9.0,10.0,76,0.00,,CLR,0.00,0.00,VWS V14.00,2013-02-20 09:23:00,
2013-02-20 03:24:00,2.2,-3.6,30.48,North,9,8.0,8.0,76,0.00,,CLR,0.00,0.00,VWS V14.00,2013-02-20 09:24:00,
2013-02-20 03:25:00,2.2,-3.6,30.48,NNW,348,7.0,10.0,76,0.00,,,0.00,0.00,VWS V14.00,2013-02-20 09:25:00,
2013-02-20 03:27:00,2.2,-3.6,30.48,North,349,9.0,9.0,76,0.00,,CLR,0.00,0.00,VWS V14.00,2013-02-20 09:27:00,
2013-02-20 03:28:00,2.2,-3.6,30.48,North,355,3.0,9.0,76,0.00,,CLR,0.00,0.00,VWS V14.00,2013-02-20 09:28:00,
2013-02-20 03:29:00,2.2,-3.6,30.48,North,10,4.0,5.0,76,0.00,,CLR,0.00,0.00,VWS V14.00,2013-02-20 09:29:00,
2013-02-20 03:30:00,2.2,-3.6,30.48,North,9,3.0,9.0,76,0.00,,OVC027,0.00,0.00,VWS V14.00,2013-02-20 09:30:00,
2013-02-20 03:32:00,2.1,-3.7,30.48,North,9,7.0,9.0,76,0.00,,CLR,0.00,0.00,VWS V14.00,2013-02-20 09:32:00,
2013-02-20 03:33:00,2.1,-3.7,30.48,North,350,5.0,9.0,76,0.00,,CLR,0.00,0.00,VWS V14.00,2013-02-20 09:33:00,
2013-02-20 03:34:00,2.1,-3.7,30.48,North,5,4.0,5.0,76,0.00,,CLR,0.00,0.00,VWS V14.00,2013-02-20 09:34:00,
2013-02-20 03:35:00,2.1,-3.7,30.48,North,360,5.0,9.0,76,0.00,,OVC027,0.00,0.00,VWS V14.00,2013-02-20 09:35:00,
2013-02-20 03:38:00,2.1,-3.4,30.48,NNE,17,3.0,11.0,77,0.00,,CLR,0.00,0.00,VWS V14.00,2013-02-20 09:38:00,
2013-02-20 03:39:00,2.0,-3.5,30.48,North,11,5.0,5.0,77,0.00,,CLR,0.00,0.00,VWS V14.00,2013-02-20 09:39:00,
2013-02-20 03:40:00,2.0,-3.5,30.48,NNW,347,5.0,11.0,77,0.00,,OVC027,0.00,0.00,VWS V14.00,2013-02-20 09:40:00,
2013-02-20 03:43:00,2.0,-3.5,30.47,North,5,5.0,8.0,77,0.00,,CLR,0.00,0.00,VWS V14.00,2013-02-20 09:43:00,
2013-02-20 03:44:00,2.0,-3.5,30.47,North,355,4.0,7.0,77,0.00,,CLR,0.00,0.00,VWS V14.00,2013-02-20 09:44:00,
2013-02-20 03:45:00,2.0,-3.5,30.47,NNW,348,4.0,9.0,77,0.00,,OVC027,0.00,0.00,VWS V14.00,2013-02-20 09:45:00,
2013-02-20 03:48:00,2.0,-3.5,30.47,NNE,21,6.0,9.0,77,0.00,,CLR,0.00,0.00,VWS V14.00,2013-02-20 09:48:00,
2013-02-20 03:49:00,1.9,-3.6,30.47,North,5,4.0,4.0,77,0.00,,CLR,0.00,0.00,VWS V14.00,2013-02-20 09:49:00,
2013-02-20 03:50:00,1.9,-3.6,30.47,NNE,17,3.0,4.0,77,0.00,,CLR,0.00,0.00,VWS V14.00,2013-02-20 09:50:00,
2013-02-20 03:53:00,1.9,-3.4,30.47,NNE,21,8.0,10.0,78,0.00,,CLR,0.00,0.00,VWS V14.00,2013-02-20 09:53:00,
2013-02-20 03:54:00,1.9,-3.4,30.47,NNE,19,8.0,10.0,78,0.00,,CLR,0.00,0.00,VWS V14.00,2013-02-20 09:54:00,
2013-02-20 03:55:00,1.9,-3.6,30.47,North,5,5.0,8.0,77,0.00,,CLR,0.00,0.00,VWS V14.00,2013-02-20 09:55:00,
2013-02-20 03:58:00,1.9,-3.4,30.47,NNE,32,7.0,9.0,78,0.00,,CLR,0.00,0.00,VWS V14.00,2013-02-20 09:58:00,
2013-02-20 03:59:00,1.9,-3.4,30.47,North,360,3.0,9.0,78,0.00,,CLR,0.00,0.00,VWS V14.00,2013-02-20 09:59:00,
2013-02-20 04:00:00,1.9,-3.4,30.47,NNE,28,4.0,8.0,78,0.00,,CLR,0.00,0.00,VWS V14.00,2013-02-20 10:00:00,
2013-02-20 04:04:00,1.9,-3.4,30.47,NNE,21,6.0,9.0,78,0.00,,CLR,0.00,0.00,VWS V14.00,2013-02-20 10:04:00,
2013-02-20 04:05:00,1.9,-3.4,30.47,North,5,2.0,6.0,78,0.00,,CLR,0.00,0.00,VWS V14.00,2013-02-20 10:05:00,
2013-02-20 04:09:00,1.8,-3.5,30.48,NNE,28,4.0,9.0,78,0.00,,CLR,0.00,0.00,VWS V14.00,2013-02-20 10:09:00,
2013-02-20 04:10:00,1.8,-3.5,30.48,NNE,16,4.0,6.0,78,0.00,,CLR,0.00,0.00,VWS V14.00,2013-02-20 10:10:00,
2013-02-20 04:14:00,1.8,-3.5,30.48,NNE,19,3.0,9.0,78,0.00,,CLR,0.00,0.00,VWS V14.00,2013-02-20 10:14:00,
2013-02-20 04:15:00,1.8,-3.7,30.48,North,9,2.0,7.0,77,0.00,,CLR,0.00,0.00,VWS V14.00,2013-02-20 10:15:00,
2013-02-20 04:19:00,1.8,-3.5,30.47,NNE,25,6.0,7.0,78,0.00,,CLR,0.00,0.00,VWS V14.00,2013-02-20 10:19:00,
2013-02-20 04:20:00,1.8,-3.5,30.47,North,355,5.0,7.0,78,0.00,,CLR,0.00,0.00,VWS V14.00,2013-02-20 10:20:00,
2013-02-20 04:21:00,1.8,-3.5,30.48,North,349,4.0,7.0,78,0.00,,CLR,0.00,0.00,VWS V14.00,2013-02-20 10:21:00,
2013-02-20 04:24:00,1.7,-3.6,30.48,NNE,16,5.0,5.0,78,0.00,,CLR,0.00,0.00,VWS V14.00,2013-02-20 10:24:00,
2013-02-20 04:25:00,1.7,-3.6,30.47,NNW,346,1.0,5.0,78,0.00,,CLR,0.00,0.00,VWS V14.00,2013-02-20 10:25:00,
2013-02-20 04:26:00,1.8,-3.5,30.47,NNW,331,6.0,9.0,78,0.00,,CLR,0.00,0.00,VWS V14.00,2013-02-20 10:26:00,
2013-02-20 04:29:00,1.7,-3.6,30.46,North,9,5.0,7.0,78,0.00,,CLR,0.00,0.00,VWS V14.00,2013-02-20 10:29:00,
2013-02-20 04:30:00,1.7,-3.6,30.46,NNE,20,4.0,7.0,78,0.00,,CLR,0.00,0.00,VWS V14.00,2013-02-20 10:30:00,
2013-02-20 04:31:00,1.7,-3.6,30.46,North,355,4.0,7.0,78,0.00,,CLR,0.00,0.00,VWS V14.00,2013-02-20 10:31:00,
2013-02-20 04:35:00,1.7,-3.6,30.46,NNE,28,1.0,9.0,78,0.00,,CLR,0.00,0.00,VWS V14.00,2013-02-20 10:35:00,
2013-02-20 04:36:00,1.7,-3.6,30.46,NNW,347,5.0,9.0,78,0.00,,CLR,0.00,0.00,VWS V14.00,2013-02-20 10:36:00,
2013-02-20 04:40:00,1.7,-3.6,30.47,North,10,3.0,7.0,78,0.00,,CLR,0.00,0.00,VWS V14.00,2013-02-20 10:40:00,
2013-02-20 04:41:00,1.7,-3.6,30.46,North,355,3.0,7.0,78,0.00,,CLR,0.00,0.00,VWS V14.00,2013-02-20 10:41:00,
2013-02-20 04:42:00,1.7,-3.6,30.46,NNE,22,6.0,9.0,78,0.00,,CLR,0.00,0.00,VWS V14.00,2013-02-20 10:42:00,
2013-02-20 04:45:00,1.7,-3.6,30.47,NNW,340,6.0,7.0,78,0.00,,CLR,0.00,0.00,VWS V14.00,2013-02-20 10:45:00,
2013-02-20 04:46:00,1.7,-3.6,30.47,North,9,5.0,7.0,78,0.00,,CLR,0.00,0.00,VWS V14.00,2013-02-20 10:46:00,
2013-02-20 04:47:00,1.7,-3.6,30.47,NNW,336,6.0,7.0,78,0.00,,CLR,0.00,0.00,VWS V14.00,2013-02-20 10:47:00,
2013-02-20 04:50:00,1.7,-3.6,30.47,North,360,2.0,7.0,78,0.00,,CLR,0.00,0.00,VWS V14.00,2013-02-20 10:50:00,
2013-02-20 04:51:00,1.6,-3.4,30.47,North,350,6.0,7.0,79,0.00,,CLR,0.00,0.00,VWS V14.00,2013-02-20 10:51:00,
2013-02-20 04:52:00,1.7,-3.6,30.47,North,355,5.0,7.0,78,0.00,,CLR,0.00,0.00,VWS V14.00,2013-02-20 10:52:00,
2013-02-20 04:55:00,1.6,-3.4,30.47,North,9,1.0,4.0,79,0.00,,CLR,0.00,0.00,VWS V14.00,2013-02-20 10:55:00,
2013-02-20 04:56:00,1.6,-3.7,30.47,North,355,2.0,5.0,78,0.00,,CLR,0.00,0.00,VWS V14.00,2013-02-20 10:56:00,
2013-02-20 04:57:00,1.6,-3.4,30.47,North,355,4.0,5.0,79,0.00,,CLR,0.00,0.00,VWS V14.00,2013-02-20 10:57:00,
2013-02-20 05:00:00,1.6,-3.7,30.48,North,9,1.0,6.0,78,0.00,,CLR,0.00,0.00,VWS V14.00,2013-02-20 11:00:00,
2013-02-20 05:01:00,1.5,-3.8,30.47,North,5,2.0,6.0,78,0.00,,CLR,0.00,0.00,VWS V14.00,2013-02-20 11:01:00,
2013-02-20 05:02:00,1.5,-3.8,30.47,North,5,2.0,6.0,78,0.00,,CLR,0.00,0.00,VWS V14.00,2013-02-20 11:02:00,
2013-02-20 05:05:00,1.5,-3.8,30.48,NNW,332,0.0,6.0,78,0.00,,CLR,0.00,0.00,VWS V14.00,2013-02-20 11:05:00,
2013-02-20 05:06:00,1.5,-3.8,30.48,NW,323,3.0,6.0,78,0.00,,CLR,0.00,0.00,VWS V14.00,2013-02-20 11:06:00,
2013-02-20 05:07:00,1.5,-3.8,30.48,NNW,332,1.0,6.0,78,0.00,,CLR,0.00,0.00,VWS V14.00,2013-02-20 11:07:00,
2013-02-20 05:10:00,1.5,-3.8,30.48,NW,323,3.0,6.0,78,0.00,,OVC027,0.00,0.00,VWS V14.00,2013-02-20 11:10:00,
2013-02-20 05:11:00,1.5,-3.8,30.48,North,360,3.0,4.0,78,0.00,,CLR,0.00,0.00,VWS V14.00,2013-02-20 11:11:00,
2013-02-20 05:12:00,1.5,-3.8,30.48,North,355,4.0,6.0,78,0.00,,CLR,0.00,0.00,VWS V14.00,2013-02-20 11:12:00,
2013-02-20 05:15:00,1.5,-3.8,30.48,NNW,342,2.0,6.0,78,0.00,,OVC027,0.00,0.00,VWS V14.00,2013-02-20 11:15:00,
2013-02-20 05:16:00,1.4,-3.8,30.48,NNW,340,2.0,5.0,78,0.00,,CLR,0.00,0.00,VWS V14.00,2013-02-20 11:16:00,
2013-02-20 05:17:00,1.4,-3.8,30.48,North,351,2.0,5.0,78,0.00,,CLR,0.00,0.00,VWS V14.00,2013-02-20 11:17:00,
2013-02-20 05:20:00,1.4,-3.8,30.48,North,355,4.0,5.0,78,0.00,,OVC027,0.00,0.00,VWS V14.00,2013-02-20 11:20:00,
2013-02-20 05:21:00,1.4,-3.8,30.48,NW,323,2.0,6.0,78,0.00,,CLR,0.00,0.00,VWS V14.00,2013-02-20 11:21:00,
2013-02-20 05:22:00,1.4,-3.8,30.48,NW,323,4.0,6.0,78,0.00,,CLR,0.00,0.00,VWS V14.00,2013-02-20 11:22:00,
2013-02-20 05:25:00,1.4,-3.8,30.48,NNW,347,1.0,6.0,78,0.00,,,0.00,0.00,VWS V14.00,2013-02-20 11:25:00,
2013-02-20 05:26:00,1.4,-3.8,30.48,North,349,3.0,7.0,78,0.00,,CLR,0.00,0.00,VWS V14.00,2013-02-20 11:26:00,
2013-02-20 05:27:00,1.4,-3.8,30.48,North,349,1.0,7.0,78,0.00,,CLR,0.00,0.00,VWS V14.00,2013-02-20 11:27:00,
2013-02-20 05:28:00,1.4,-3.8,30.48,North,349,3.0,7.0,78,0.00,,CLR,0.00,0.00,VWS V14.00,2013-02-20 11:28:00,
2013-02-20 05:30:00,1.4,-3.8,30.48,NNE,18,3.0,7.0,78,0.00,,OVC027,0.00,0.00,VWS V14.00,2013-02-20 11:30:00,
2013-02-20 05:31:00,1.4,-3.8,30.48,North,5,2.0,5.0,78,0.00,,CLR,0.00,0.00,VWS V14.00,2013-02-20 11:31:00,
2013-02-20 05:32:00,1.4,-3.8,30.48,North,355,2.0,6.0,78,0.00,,CLR,0.00,0.00,VWS V14.00,2013-02-20 11:32:00,
2013-02-20 05:33:00,1.4,-3.8,30.48,North,5,6.0,6.0,78,0.00,,CLR,0.00,0.00,VWS V14.00,2013-02-20 11:33:00,
2013-02-20 05:35:00,1.4,-3.8,30.48,North,5,2.0,6.0,78,0.00,,,0.00,0.00,VWS V14.00,2013-02-20 11:35:00,
2013-02-20 05:37:00,1.4,-3.8,30.48,North,360,3.0,4.0,78,0.00,,CLR,0.00,0.00,VWS V14.00,2013-02-20 11:37:00,
2013-02-20 05:38:00,1.4,-3.8,30.48,NNW,348,2.0,5.0,78,0.00,,CLR,0.00,0.00,VWS V14.00,2013-02-20 11:38:00,
2013-02-20 05:40:00,1.4,-3.8,30.48,NNW,347,2.0,5.0,78,0.00,,OVC027,0.00,0.00,VWS V14.00,2013-02-20 11:40:00,
2013-02-20 05:42:00,1.4,-3.8,30.47,NNE,19,4.0,7.0,78,0.00,,CLR,0.00,0.00,VWS V14.00,2013-02-20 11:42:00,
2013-02-20 05:43:00,1.4,-3.8,30.47,North,360,4.0,7.0,78,0.00,,CLR,0.00,0.00,VWS V14.00,2013-02-20 11:43:00,
2013-02-20 05:45:00,1.4,-3.8,30.47,NNE,24,6.0,7.0,78,0.00,,OVC027,0.00,0.00,VWS V14.00,2013-02-20 11:45:00,
2013-02-20 05:47:00,1.4,-3.8,30.47,NNW,344,3.0,8.0,78,0.00,,CLR,0.00,0.00,VWS V14.00,2013-02-20 11:47:00,
2013-02-20 05:48:00,1.4,-3.8,30.47,NNW,345,2.0,8.0,78,0.00,,CLR,0.00,0.00,VWS V14.00,2013-02-20 11:48:00,
2013-02-20 05:50:00,1.4,-3.8,30.47,NNW,346,1.0,8.0,78,0.00,,OVC027,0.00,0.00,VWS V14.00,2013-02-20 11:50:00,
2013-02-20 05:52:00,1.4,-3.8,30.47,NNE,13,2.0,7.0,78,0.00,,CLR,0.00,0.00,VWS V14.00,2013-02-20 11:52:00,
2013-02-20 05:53:00,1.4,-3.8,30.47,NNE,15,5.0,7.0,78,0.00,,CLR,0.00,0.00,VWS V14.00,2013-02-20 11:53:00,
2013-02-20 05:55:00,1.3,-4.0,30.47,North,360,6.0,7.0,78,0.00,,OVC027,0.00,0.00,VWS V14.00,2013-02-20 11:55:00,
2013-02-20 05:57:00,1.3,-4.0,30.47,NNE,16,1.0,9.0,78,0.00,,CLR,0.00,0.00,VWS V14.00,2013-02-20 11:57:00,
2013-02-20 05:58:00,1.3,-4.0,30.47,North,11,3.0,9.0,78,0.00,,CLR,0.00,0.00,VWS V14.00,2013-02-20 11:58:00,
2013-02-20 05:59:00,1.3,-4.0,30.47,North,355,3.0,9.0,78,0.00,,CLR,0.00,0.00,VWS V14.00,2013-02-20 11:59:00,
2013-02-20 06:00:00,1.3,-4.0,30.47,North,355,4.0,9.0,78,0.00,,OVC027,0.00,0.00,VWS V14.00,2013-02-20 12:00:00,
2013-02-20 06:03:00,1.3,-3.7,30.47,North,5,2.0,7.0,79,0.00,,CLR,0.00,0.00,VWS V14.00,2013-02-20 12:03:00,
2013-02-20 06:04:00,1.3,-3.7,30.48,North,355,1.0,7.0,79,0.00,,CLR,0.00,0.00,VWS V14.00,2013-02-20 12:04:00,
2013-02-20 06:05:00,1.3,-3.7,30.48,North,355,2.0,7.0,79,0.00,,OVC027,0.00,0.00,VWS V14.00,2013-02-20 12:05:00,
2013-02-20 06:08:00,1.3,-3.7,30.48,NNW,337,2.0,4.0,79,0.00,,CLR,0.00,0.00,VWS V14.00,2013-02-20 12:08:00,
2013-02-20 06:09:00,1.3,-3.7,30.48,North,360,6.0,6.0,79,0.00,,CLR,0.00,0.00,VWS V14.00,2013-02-20 12:09:00,
2013-02-20 06:10:00,1.3,-3.7,30.48,North,360,4.0,6.0,79,0.00,,OVC027,0.00,0.00,VWS V14.00,2013-02-20 12:10:00,
2013-02-20 06:13:00,1.2,-3.8,30.48,North,360,2.0,4.0,79,0.00,,CLR,0.00,0.00,VWS V14.00,2013-02-20 12:13:00,
2013-02-20 06:14:00,1.2,-3.8,30.48,North,360,2.0,4.0,79,0.00,,CLR,0.00,0.00,VWS V14.00,2013-02-20 12:14:00,
2013-02-20 06:15:00,1.2,-3.8,30.48,North,360,3.0,4.0,79,0.00,,OVC027,0.00,0.00,VWS V14.00,2013-02-20 12:15:00,
2013-02-20 06:18:00,1.2,-3.8,30.47,North,5,5.0,7.0,79,0.00,,CLR,0.00,0.00,VWS V14.00,2013-02-20 12:18:00,
2013-02-20 06:19:00,1.2,-4.1,30.47,North,355,3.0,7.0,78,0.00,,CLR,0.00,0.00,VWS V14.00,2013-02-20 12:19:00,
2013-02-20 06:20:00,1.2,-4.1,30.47,North,355,5.0,7.0,78,0.00,,OVC027,0.00,0.00,VWS V14.00,2013-02-20 12:20:00,
2013-02-20 06:23:00,1.2,-3.8,30.47,North,5,2.0,6.0,79,0.00,,CLR,0.00,0.00,VWS V14.00,2013-02-20 12:23:00,
2013-02-20 06:24:00,1.2,-3.8,30.47,North,5,1.0,6.0,79,0.00,,CLR,0.00,0.00,VWS V14.00,2013-02-20 12:24:00,
2013-02-20 06:25:00,1.2,-3.8,30.47,North,5,3.0,4.0,79,0.00,,CLR,0.00,0.00,VWS V14.00,2013-02-20 12:25:00,
2013-02-20 06:28:00,1.2,-3.8,30.48,North,350,2.0,4.0,79,0.00,,CLR,0.00,0.00,VWS V14.00,2013-02-20 12:28:00,
2013-02-20 06:29:00,1.2,-3.8,30.48,North,350,2.0,4.0,79,0.00,,CLR,0.00,0.00,VWS V14.00,2013-02-20 12:29:00,
2013-02-20 06:30:00,1.2,-3.8,30.48,North,350,1.0,4.0,79,0.00,,CLR,0.00,0.00,VWS V14.00,2013-02-20 12:30:00,
2013-02-20 06:33:00,1.1,-3.9,30.48,North,11,2.0,4.0,79,0.00,,CLR,0.00,0.00,VWS V14.00,2013-02-20 12:33:00,
2013-02-20 06:34:00,1.1,-3.9,30.48,North,349,3.0,3.0,79,0.00,,CLR,0.00,0.00,VWS V14.00,2013-02-20 12:34:00,
2013-02-20 06:35:00,1.1,-3.9,30.48,NNW,348,3.0,5.0,79,0.00,,OVC027,0.00,0.00,VWS V14.00,2013-02-20 12:35:00,
2013-02-20 06:36:00,1.1,-3.9,30.48,NNW,342,2.0,6.0,79,0.00,,CLR,0.00,0.00,VWS V14.00,2013-02-20 12:36:00,
2013-02-20 06:38:00,1.1,-3.9,30.48,North,5,1.0,6.0,79,0.00,,CLR,0.00,0.00,VWS V14.00,2013-02-20 12:38:00,
2013-02-20 06:39:00,1.1,-3.9,30.48,North,5,3.0,3.0,79,0.00,,CLR,0.00,0.00,VWS V14.00,2013-02-20 12:39:00,
2013-02-20 06:40:00,1.1,-3.9,30.48,North,5,2.0,3.0,79,0.00,,CLR,0.00,0.00,VWS V14.00,2013-02-20 12:40:00,
2013-02-20 06:41:00,1.1,-3.9,30.48,North,9,2.0,3.0,79,0.00,,CLR,0.00,0.00,VWS V14.00,2013-02-20 12:41:00,
2013-02-20 06:44:00,1.1,-3.9,30.48,North,360,1.0,4.0,79,0.00,,CLR,0.00,0.00,VWS V14.00,2013-02-20 12:44:00,
2013-02-20 06:45:00,1.1,-3.9,30.48,North,360,1.0,3.0,79,0.00,,CLR,0.00,0.00,VWS V14.00,2013-02-20 12:45:00,
2013-02-20 06:46:00,1.0,-4.0,30.48,North,360,2.0,3.0,79,0.00,,CLR,0.00,0.00,VWS V14.00,2013-02-20 12:46:00,
2013-02-20 06:49:00,1.0,-4.0,30.48,NNW,340,2.0,4.0,79,0.00,,CLR,0.00,0.00,VWS V14.00,2013-02-20 12:49:00,
2013-02-20 06:50:00,1.0,-4.0,30.48,NNW,340,1.0,3.0,79,0.00,,CLR,0.00,0.00,VWS V14.00,2013-02-20 12:50:00,
2013-02-20 06:51:00,1.0,-4.0,30.48,NNW,339,2.0,3.0,79,0.00,,CLR,0.00,0.00,VWS V14.00,2013-02-20 12:51:00,
2013-02-20 06:54:00,1.0,-4.0,30.48,North,355,2.0,2.0,79,0.00,,CLR,0.00,0.00,VWS V14.00,2013-02-20 12:54:00,
2013-02-20 06:55:00,1.0,-4.0,30.48,NNW,344,3.0,5.0,79,0.00,,CLR,0.00,0.00,VWS V14.00,2013-02-20 12:55:00,
2013-02-20 06:56:00,1.0,-4.0,30.48,NNW,342,2.0,5.0,79,0.00,,CLR,0.00,0.00,VWS V14.00,2013-02-20 12:56:00,
2013-02-20 06:59:00,1.0,-4.0,30.48,North,5,5.0,5.0,79,0.00,,CLR,0.00,0.00,VWS V14.00,2013-02-20 12:59:00,
2013-02-20 07:00:00,1.0,-4.0,30.48,NW,324,5.0,6.0,79,0.00,,CLR,0.00,0.00,VWS V14.00,2013-02-20 13:00:00,
2013-02-20 07:01:00,1.0,-4.0,30.48,NNW,334,1.0,6.0,79,0.00,,CLR,0.00,0.00,VWS V14.00,2013-02-20 13:01:00,
2013-02-20 07:04:00,1.1,-3.9,30.48,North,5,5.0,5.0,79,0.00,,CLR,0.00,5.00,VWS V14.00,2013-02-20 13:04:00,
2013-02-20 07:05:00,1.1,-3.9,30.48,North,5,3.0,5.0,79,0.00,,CLR,0.00,5.00,VWS V14.00,2013-02-20 13:05:00,
2013-02-20 07:06:00,1.1,-3.9,30.48,North,9,1.0,5.0,79,0.00,,CLR,0.00,7.00,VWS V14.00,2013-02-20 13:06:00,
2013-02-20 07:09:00,1.1,-3.9,30.48,North,360,3.0,3.0,79,0.00,,CLR,0.00,9.00,VWS V14.00,2013-02-20 13:09:00,
2013-02-20 07:10:00,1.1,-3.9,30.48,North,360,4.0,4.0,79,0.00,,CLR,0.00,9.00,VWS V14.00,2013-02-20 13:10:00,
2013-02-20 07:11:00,1.1,-3.9,30.48,North,360,3.0,4.0,79,0.00,,CLR,0.00,11.00,VWS V14.00,2013-02-20 13:11:00,
2013-02-20 07:12:00,1.2,-3.8,30.48,North,360,2.0,4.0,79,0.00,,CLR,0.00,11.00,VWS V14.00,2013-02-20 13:12:00,
2013-02-20 07:14:00,1.2,-3.8,30.48,North,360,1.0,2.0,79,0.00,,CLR,0.00,12.00,VWS V14.00,2013-02-20 13:14:00,
2013-02-20 07:15:00,1.2,-3.8,30.48,North,360,3.0,3.0,79,0.00,,CLR,0.00,12.00,VWS V14.00,2013-02-20 13:15:00,
2013-02-20 07:16:00,1.3,-3.7,30.48,North,9,1.0,3.0,79,0.00,,CLR,0.00,14.00,VWS V14.00,2013-02-20 13:16:00,
2013-02-20 07:18:00,1.3,-3.7,30.48,NNE,19,3.0,6.0,79,0.00,,CLR,0.00,14.00,VWS V14.00,2013-02-20 13:18:00,
2013-02-20 07:19:00,1.3,-3.7,30.48,North,360,4.0,6.0,79,0.00,,CLR,0.00,16.00,VWS V14.00,2013-02-20 13:19:00,
2013-02-20 07:20:00,1.4,-3.6,30.48,North,360,1.0,6.0,79,0.00,,CLR,0.00,18.00,VWS V14.00,2013-02-20 13:20:00,
2013-02-20 07:21:00,1.4,-3.6,30.48,NNW,341,5.0,6.0,79,0.00,,CLR,0.00,19.00,VWS V14.00,2013-02-20 13:21:00,
2013-02-20 07:23:00,1.4,-3.6,30.48,North,5,2.0,6.0,79,0.00,,CLR,0.00,19.00,VWS V14.00,2013-02-20 13:23:00,
2013-02-20 07:24:00,1.5,-3.5,30.49,North,9,3.0,4.0,79,0.00,,CLR,0.00,25.00,VWS V14.00,2013-02-20 13:24:00,
2013-02-20 07:25:00,1.5,-3.5,30.49,North,5,1.0,4.0,79,0.00,,CLR,0.00,25.00,VWS V14.00,2013-02-20 13:25:00,
2013-02-20 07:27:00,1.5,-3.5,30.49,North,5,0.0,4.0,79,0.00,,CLR,0.00,26.00,VWS V14.00,2013-02-20 13:27:00,
2013-02-20 07:28:00,1.6,-3.4,30.49,North,5,1.0,4.0,79,0.00,,CLR,0.00,26.00,VWS V14.00,2013-02-20 13:28:00,
2013-02-20 07:29:00,1.6,-3.4,30.49,North,5,0.0,1.0,79,0.00,,CLR,0.00,26.00,VWS V14.00,2013-02-20 13:29:00,
2013-02-20 07:30:00,1.7,-3.3,30.49,North,9,1.0,5.0,79,0.00,,CLR,0.00,26.00,VWS V14.00,2013-02-20 13:30:00,
2013-02-20 07:32:00,1.7,-3.3,30.49,NNE,19,3.0,5.0,79,0.00,,CLR,0.00,30.00,VWS V14.00,2013-02-20 13:32:00,
2013-02-20 07:34:00,1.8,-3.2,30.49,NNE,19,4.0,5.0,79,0.00,,CLR,0.00,32.00,VWS V14.00,2013-02-20 13:34:00,
2013-02-20 07:35:00,1.8,-3.2,30.49,North,5,4.0,6.0,79,0.00,,CLR,0.00,30.00,VWS V14.00,2013-02-20 13:35:00,
2013-02-20 07:37:00,1.9,-3.1,30.49,NNE,29,3.0,6.0,79,0.00,,CLR,0.00,35.00,VWS V14.00,2013-02-20 13:37:00,
2013-02-20 07:39:00,2.0,-3.3,30.49,NNE,19,1.0,6.0,78,0.00,,CLR,0.00,37.00,VWS V14.00,2013-02-20 13:39:00,
2013-02-20 07:40:00,2.1,-3.2,30.49,NNW,348,6.0,6.0,78,0.00,,CLR,0.00,40.00,VWS V14.00,2013-02-20 13:40:00,
2013-02-20 07:42:00,2.2,-3.1,30.49,NNE,17,4.0,6.0,78,0.00,,CLR,0.00,39.00,VWS V14.00,2013-02-20 13:42:00,
2013-02-20 07:44:00,2.2,-3.1,30.49,NNE,16,2.0,4.0,78,0.00,,CLR,0.00,33.00,VWS V14.00,2013-02-20 13:44:00,
2013-02-20 07:45:00,2.3,-3.0,30.49,NNE,32,4.0,5.0,78,0.00,,CLR,0.00,35.00,VWS V14.00,2013-02-20 13:45:00,
2013-02-20 07:46:00,2.3,-3.0,30.49,NNE,30,3.0,5.0,78,0.00,,CLR,0.00,33.00,VWS V14.00,2013-02-20 13:46:00,
2013-02-20 07:47:00,2.4,-3.2,30.50,NNE,19,2.0,5.0,77,0.00,,CLR,0.00,40.00,VWS V14.00,2013-02-20 13:47:00,
2013-02-20 07:50:00,2.4,-3.2,30.50,NNE,22,2.0,5.0,77,0.00,,CLR,0.00,54.00,VWS V14.00,2013-02-20 13:50:00,
2013-02-20 07:51:00,2.4,-3.2,30.50,NNE,30,2.0,6.0,77,0.00,,CLR,0.00,69.00,VWS V14.00,2013-02-20 13:51:00,
2013-02-20 07:52:00,2.5,-3.0,30.50,NNE,25,3.0,6.0,77,0.00,,CLR,0.00,39.00,VWS V14.00,2013-02-20 13:52:00,
2013-02-20 07:55:00,2.6,-3.0,30.50,NNE,26,1.0,7.0,77,0.00,,CLR,0.00,58.00,VWS V14.00,2013-02-20 13:55:00,
2013-02-20 07:56:00,2.7,-2.9,30.50,North,355,2.0,7.0,77,0.00,,CLR,0.00,70.00,VWS V14.00,2013-02-20 13:56:00,
2013-02-20 07:57:00,2.7,-2.9,30.50,North,355,4.0,7.0,77,0.00,,CLR,0.00,69.00,VWS V14.00,2013-02-20 13:57:00,
2013-02-20 08:00:00,2.9,-2.7,30.51,North,5,3.0,6.0,77,0.00,,CLR,0.00,63.00,VWS V14.00,2013-02-20 14:00:00,
2013-02-20 08:01:00,2.9,-2.7,30.51,NNE,28,1.0,6.0,77,0.00,,CLR,0.00,56.00,VWS V14.00,2013-02-20 14:01:00,
2013-02-20 08:02:00,3.0,-2.6,30.51,NNE,22,4.0,6.0,77,0.00,,CLR,0.00,53.00,VWS V14.00,2013-02-20 14:02:00,
2013-02-20 08:05:00,3.1,-2.5,30.51,North,355,1.0,4.0,77,0.00,,CLR,0.00,72.00,VWS V14.00,2013-02-20 14:05:00,
2013-02-20 08:06:00,3.2,-2.4,30.51,NNW,343,6.0,6.0,77,0.00,,CLR,0.00,63.00,VWS V14.00,2013-02-20 14:06:00,
2013-02-20 08:07:00,3.3,-2.3,30.51,North,355,2.0,7.0,77,0.00,,CLR,0.00,58.00,VWS V14.00,2013-02-20 14:07:00,
2013-02-20 08:10:00,3.5,-2.1,30.51,NNE,22,0.0,4.0,77,0.00,,CLR,0.00,81.00,VWS V14.00,2013-02-20 14:10:00,
2013-02-20 08:11:00,3.5,-2.1,30.51,NNE,32,3.0,4.0,77,0.00,,CLR,0.00,81.00,VWS V14.00,2013-02-20 14:11:00,
2013-02-20 08:12:00,3.6,-2.3,30.51,NNE,24,4.0,4.0,76,0.00,,CLR,0.00,127.00,VWS V14.00,2013-02-20 14:12:00,
2013-02-20 08:15:00,3.8,-1.8,30.51,North,9,4.0,6.0,77,0.00,,CLR,0.00,109.00,VWS V14.00,2013-02-20 14:15:00,
2013-02-20 08:16:00,3.9,-1.7,30.51,NNE,13,3.0,6.0,77,0.00,,CLR,0.00,107.00,VWS V14.00,2013-02-20 14:16:00,
2013-02-20 08:17:00,4.0,-1.9,30.51,NNE,28,4.0,6.0,76,0.00,,CLR,0.00,100.00,VWS V14.00,2013-02-20 14:17:00,
2013-02-20 08:20:00,4.2,-1.7,30.52,NNW,343,5.0,6.0,76,0.00,,CLR,0.00,76.00,VWS V14.00,2013-02-20 14:20:00,
2013-02-20 08:21:00,4.2,-1.7,30.52,North,5,3.0,6.0,76,0.00,,CLR,0.00,111.00,VWS V14.00,2013-02-20 14:21:00,
2013-02-20 08:22:00,4.2,-1.7,30.52,North,355,3.0,6.0,76,0.00,,CLR,0.00,111.00,VWS V14.00,2013-02-20 14:22:00,
2013-02-20 08:25:00,4.3,-1.6,30.52,NNW,347,5.0,7.0,76,0.00,,OVC027,0.00,81.00,VWS V14.00,2013-02-20 14:25:00,
2013-02-20 08:26:00,4.4,-1.5,30.52,NNW,346,4.0,7.0,76,0.00,,CLR,0.00,123.00,VWS V14.00,2013-02-20 14:26:00,
2013-02-20 08:27:00,4.4,-1.5,30.52,NW,325,3.0,7.0,76,0.00,,CLR,0.00,125.00,VWS V14.00,2013-02-20 14:27:00,
2013-02-20 08:30:00,4.5,-1.7,30.52,North,5,4.0,7.0,75,0.00,,OVC027,0.00,97.00,VWS V14.00,2013-02-20 14:30:00,
2013-02-20 08:31:00,4.6,-1.6,30.52,NE,46,0.0,4.0,75,0.00,,CLR,0.00,91.00,VWS V14.00,2013-02-20 14:31:00,
2013-02-20 08:32:00,4.6,-1.6,30.52,NE,46,2.0,4.0,75,0.00,,CLR,0.00,91.00,VWS V14.00,2013-02-20 14:32:00,
2013-02-20 08:35:00,4.7,-1.8,30.52,NE,34,1.0,4.0,74,0.00,,OVC027,0.00,128.00,VWS V14.00,2013-02-20 14:35:00,
2013-02-20 08:36:00,4.9,-1.3,30.52,North,9,2.0,5.0,75,0.00,,CLR,0.00,128.00,VWS V14.00,2013-02-20 14:36:00,
2013-02-20 08:37:00,4.9,-1.3,30.52,NNE,23,3.0,5.0,75,0.00,,CLR,0.00,139.00,VWS V14.00,2013-02-20 14:37:00,
2013-02-20 08:40:00,5.1,-1.1,30.52,NNE,24,0.0,5.0,75,0.00,,OVC027,0.00,153.00,VWS V14.00,2013-02-20 14:40:00,
2013-02-20 08:42:00,5.3,-1.2,30.52,NNW,338,2.0,5.0,74,0.00,,CLR,0.00,72.00,VWS V14.00,2013-02-20 14:42:00,
2013-02-20 08:43:00,5.4,-1.1,30.52,NNW,338,3.0,5.0,74,0.00,,CLR,0.00,95.00,VWS V14.00,2013-02-20 14:43:00,
2013-02-20 08:45:00,5.4,-1.1,30.52,NNW,337,1.0,5.0,74,0.00,,OVC027,0.00,148.00,VWS V14.00,2013-02-20 14:45:00,
2013-02-20 08:47:00,5.4,-1.4,30.53,NNE,32,3.0,3.0,73,0.00,,CLR,0.00,186.00,VWS V14.00,2013-02-20 14:47:00,
2013-02-20 08:48:00,5.4,-1.4,30.53,NNE,18,3.0,4.0,73,0.00,,CLR,0.00,200.00,VWS V14.00,2013-02-20 14:48:00,
2013-02-20 08:50:00,5.5,-1.3,30.53,NNE,20,2.0,5.0,73,0.00,,OVC027,0.00,185.00,VWS V14.00,2013-02-20 14:50:00,
2013-02-20 08:52:00,5.8,-0.7,30.53,NNE,28,4.0,4.0,74,0.00,,CLR,0.00,229.00,VWS V14.00,2013-02-20 14:52:00,
2013-02-20 08:53:00,5.9,-0.6,30.52,NNE,22,3.0,5.0,74,0.00,,CLR,0.00,229.00,VWS V14.00,2013-02-20 14:53:00,
2013-02-20 08:55:00,6.0,-0.5,30.52,NNE,21,2.0,5.0,74,0.00,,OVC027,0.00,214.00,VWS V14.00,2013-02-20 14:55:00,
2013-02-20 08:57:00,6.0,-1.1,30.52,East,87,0.0,4.0,72,0.00,,CLR,0.00,156.00,VWS V14.00,2013-02-20 14:57:00,
2013-02-20 08:58:00,6.0,-1.1,30.52,East,90,0.0,4.0,72,0.00,,CLR,0.00,148.00,VWS V14.00,2013-02-20 14:58:00,
2013-02-20 09:00:00,5.9,-1.2,30.52,East,90,1.0,4.0,72,0.00,,OVC027,0.00,158.00,VWS V14.00,2013-02-20 15:00:00,
2013-02-20 09:02:00,5.9,-0.6,30.52,NNW,340,1.0,5.0,74,0.00,,CLR,0.00,162.00,VWS V14.00,2013-02-20 15:02:00,
2013-02-20 09:03:00,6.0,-0.5,30.52,NNW,340,0.0,5.0,74,0.00,,CLR,0.00,165.00,VWS V14.00,2013-02-20 15:03:00,
2013-02-20 09:05:00,6.0,-0.5,30.52,NNW,340,1.0,5.0,74,0.00,,OVC027,0.00,172.00,VWS V14.00,2013-02-20 15:05:00,
2013-02-20 09:07:00,6.3,-0.2,30.52,North,355,1.0,3.0,74,0.00,,CLR,0.00,221.00,VWS V14.00,2013-02-20 15:07:00,
2013-02-20 09:08:00,6.3,-0.2,30.52,North,355,3.0,4.0,74,0.00,,CLR,0.00,221.00,VWS V14.00,2013-02-20 15:08:00,
2013-02-20 09:10:00,6.4,-0.4,30.52,North,355,0.0,4.0,73,0.00,,OVC027,0.00,192.00,VWS V14.00,2013-02-20 15:10:00,
2013-02-20 09:13:00,6.7,-0.1,30.52,North,5,5.0,6.0,73,0.00,,CLR,0.00,225.00,VWS V14.00,2013-02-20 15:13:00,
2013-02-20 09:15:00,6.7,-0.1,30.52,NNW,348,5.0,6.0,73,0.00,,OVC027,0.00,230.00,VWS V14.00,2013-02-20 15:15:00,
2013-02-20 09:18:00,7.2,0.4,30.52,NNE,13,2.0,5.0,73,0.00,,CLR,0.00,283.00,VWS V14.00,2013-02-20 15:18:00,
2013-02-20 09:20:00,7.3,0.5,30.52,NNE,17,2.0,5.0,73,0.00,,OVC027,0.00,257.00,VWS V14.00,2013-02-20 15:20:00,
2013-02-20 09:23:00,7.4,0.0,30.52,NE,38,1.0,4.0,71,0.00,,CLR,0.00,220.00,VWS V14.00,2013-02-20 15:23:00,
2013-02-20 09:24:00,7.5,0.1,30.52,NNE,30,0.0,5.0,71,0.00,,CLR,0.00,218.00,VWS V14.00,2013-02-20 15:24:00,
2013-02-20 09:25:00,7.5,0.1,30.52,NE,49,4.0,5.0,71,0.00,,OVC027,0.00,218.00,VWS V14.00,2013-02-20 15:25:00,
2013-02-20 09:28:00,7.8,0.7,30.52,NE,56,1.0,5.0,72,0.00,,CLR,0.00,207.00,VWS V14.00,2013-02-20 15:28:00,
2013-02-20 09:29:00,7.8,0.7,30.52,NE,46,2.0,5.0,72,0.00,,CLR,0.00,202.00,VWS V14.00,2013-02-20 15:29:00,
2013-02-20 09:30:00,7.8,0.7,30.52,NNE,22,3.0,5.0,72,0.00,,OVC027,0.00,202.00,VWS V14.00,2013-02-20 15:30:00,
2013-02-20 09:33:00,8.0,0.6,30.51,NE,40,3.0,7.0,71,0.00,,CLR,0.00,214.00,VWS V14.00,2013-02-20 15:33:00,
2013-02-20 09:34:00,8.0,0.6,30.51,NNE,32,3.0,7.0,71,0.00,,CLR,0.00,202.00,VWS V14.00,2013-02-20 15:34:00,
2013-02-20 09:35:00,8.0,0.6,30.51,NNE,19,2.0,7.0,71,0.00,,OVC027,0.00,202.00,VWS V14.00,2013-02-20 15:35:00,
2013-02-20 09:39:00,7.9,0.5,30.51,ENE,71,2.0,7.0,71,0.00,,CLR,0.00,220.00,VWS V14.00,2013-02-20 15:39:00,
2013-02-20 09:40:00,7.9,0.5,30.51,ENE,60,3.0,7.0,71,0.00,,OVC027,0.00,227.00,VWS V14.00,2013-02-20 15:40:00,
2013-02-20 09:44:00,8.3,1.1,30.51,NNE,24,3.0,7.0,72,0.00,,CLR,0.00,227.00,VWS V14.00,2013-02-20 15:44:00,
2013-02-20 09:45:00,8.3,1.1,30.51,NNE,24,3.0,7.0,72,0.00,,OVC027,0.00,227.00,VWS V14.00,2013-02-20 15:45:00,
2013-02-20 09:49:00,8.7,1.2,30.51,NNE,27,6.0,6.0,71,0.00,,CLR,0.00,255.00,VWS V14.00,2013-02-20 15:49:00,
2013-02-20 09:50:00,8.8,1.0,30.51,North,11,4.0,6.0,70,0.00,,CLR,0.00,241.00,VWS V14.00,2013-02-20 15:50:00,
2013-02-20 09:54:00,9.1,1.3,30.51,NE,53,5.0,5.0,70,0.00,,CLR,0.00,290.00,VWS V14.00,2013-02-20 15:54:00,
2013-02-20 09:55:00,9.1,1.3,30.51,NNE,22,1.0,5.0,70,0.00,,CLR,0.00,264.00,VWS V14.00,2013-02-20 15:55:00,
2013-02-20 09:59:00,9.2,1.4,30.51,NE,34,1.0,1.0,70,0.00,,CLR,0.00,271.00,VWS V14.00,2013-02-20 15:59:00,
2013-02-20 10:00:00,9.3,1.8,30.51,ENE,66,2.0,4.0,71,0.00,,CLR,0.00,274.00,VWS V14.00,2013-02-20 16:00:00,
2013-02-20 10:04:00,9.6,1.8,30.50,ENE,58,3.0,5.0,70,0.00,,CLR,0.00,239.00,VWS V14.00,2013-02-20 16:04:00,
2013-02-20 10:05:00,9.6,1.8,30.50,NE,36,3.0,5.0,70,0.00,,CLR,0.00,243.00,VWS V14.00,2013-02-20 16:05:00,
2013-02-20 10:09:00,9.9,1.5,30.50,North,11,1.0,4.0,68,0.00,,CLR,0.00,278.00,VWS V14.00,2013-02-20 16:09:00,
2013-02-20 10:10:00,9.9,1.5,30.50,NE,34,2.0,4.0,68,0.00,,CLR,0.00,287.00,VWS V14.00,2013-02-20 16:10:00,
2013-02-20 10:14:00,9.9,1.8,30.50,ENE,65,1.0,2.0,69,0.00,,CLR,0.00,288.00,VWS V14.00,2013-02-20 16:14:00,
2013-02-20 10:15:00,9.9,1.5,30.50,NE,53,5.0,6.0,68,0.00,,CLR,0.00,294.00,VWS V14.00,2013-02-20 16:15:00,
2013-02-20 10:19:00,9.9,1.5,30.50,ESE,103,6.0,6.0,68,0.00,,CLR,0.00,251.00,VWS V14.00,2013-02-20 16:19:00,
2013-02-20 10:20:00,10.0,1.9,30.50,NE,50,4.0,8.0,69,0.00,,CLR,0.00,285.00,VWS V14.00,2013-02-20 16:20:00,
2013-02-20 10:21:00,10.0,1.9,30.50,NE,40,4.0,8.0,69,0.00,,CLR,0.00,246.00,VWS V14.00,2013-02-20 16:21:00,
2013-02-20 10:24:00,10.4,2.3,30.50,ENE,57,3.0,4.0,69,0.00,,CLR,0.00,216.00,VWS V14.00,2013-02-20 16:24:00,
2013-02-20 10:25:00,10.6,2.5,30.50,ENE,66,3.0,4.0,69,0.00,,CLR,0.00,236.00,VWS V14.00,2013-02-20 16:25:00,
2013-02-20 10:26:00,10.6,2.5,30.50,East,93,4.0,4.0,69,0.00,,CLR,0.00,236.00,VWS V14.00,2013-02-20 16:26:00,
2013-02-20 10:30:00,11.0,2.8,30.50,ENE,67,4.0,4.0,69,0.00,,CLR,0.00,348.00,VWS V14.00,2013-02-20 16:30:00,
2013-02-20 10:31:00,11.2,3.0,30.50,ENE,63,1.0,6.0,69,0.00,,CLR,0.00,388.00,VWS V14.00,2013-02-20 16:31:00,
2013-02-20 10:35:00,11.4,2.9,30.51,ENE,59,3.0,4.0,68,0.00,,CLR,0.00,218.00,VWS V14.00,2013-02-20 16:35:00,
2013-02-20 10:36:00,11.4,2.9,30.51,NNE,20,4.0,5.0,68,0.00,,CLR,0.00,236.00,VWS V14.00,2013-02-20 16:36:00,
2013-02-20 10:40:00,12.2,3.3,30.50,ENE,57,4.0,5.0,67,0.00,,CLR,0.00,271.00,VWS V14.00,2013-02-20 16:40:00,
2013-02-20 10:41:00,12.3,3.5,30.50,North,351,3.0,5.0,67,0.00,,CLR,0.00,271.00,VWS V14.00,2013-02-20 16:41:00,
2013-02-20 10:45:00,12.7,3.2,30.50,ENE,62,3.0,7.0,65,0.00,,CLR,0.00,276.00,VWS V14.00,2013-02-20 16:45:00,
2013-02-20 10:46:00,12.7,3.2,30.50,ENE,63,3.0,7.0,65,0.00,,CLR,0.00,276.00,VWS V14.00,2013-02-20 16:46:00,
2013-02-20 10:47:00,12.6,2.8,30.50,ENE,65,3.0,7.0,64,0.00,,CLR,0.00,427.00,VWS V14.00,2013-02-20 16:47:00,
2013-02-20 10:50:00,12.6,3.1,30.50,ENE,63,3.0,6.0,65,0.00,,CLR,0.00,468.00,VWS V14.00,2013-02-20 16:50:00,
2013-02-20 10:51:00,12.6,3.1,30.50,ENE,69,4.0,6.0,65,0.00,,CLR,0.00,494.00,VWS V14.00,2013-02-20 16:51:00,
2013-02-20 10:52:00,12.6,3.1,30.50,ESE,105,4.0,6.0,65,0.00,,CLR,0.00,466.00,VWS V14.00,2013-02-20 16:52:00,
2013-02-20 10:55:00,12.6,3.4,30.51,ENE,61,4.0,6.0,66,0.00,,CLR,0.00,443.00,VWS V14.00,2013-02-20 16:55:00,
2013-02-20 10:56:00,12.6,3.4,30.51,NE,53,4.0,6.0,66,0.00,,CLR,0.00,450.00,VWS V14.00,2013-02-20 16:56:00,
2013-02-20 10:57:00,12.7,3.2,30.51,NNW,344,4.0,6.0,65,0.00,,CLR,0.00,422.00,VWS V14.00,2013-02-20 16:57:00,
2013-02-20 11:00:00,13.0,3.8,30.51,North,9,3.0,6.0,66,0.00,,OVC027,0.00,374.00,VWS V14.00,2013-02-20 17:00:00,
2013-02-20 11:01:00,13.2,3.7,30.51,NNE,14,2.0,8.0,65,0.00,,CLR,0.00,394.00,VWS V14.00,2013-02-20 17:01:00,
2013-02-20 11:02:00,13.3,3.4,30.51,East,94,4.0,8.0,64,0.00,,CLR,0.00,345.00,VWS V14.00,2013-02-20 17:02:00,
2013-02-20 11:05:00,13.3,3.4,30.51,ESE,111,2.0,8.0,64,0.00,,OVC027,0.00,309.00,VWS V14.00,2013-02-20 17:05:00,
2013-02-20 11:06:00,13.4,3.5,30.51,East,88,1.0,5.0,64,0.00,,CLR,0.00,448.00,VWS V14.00,2013-02-20 17:06:00,
2013-02-20 11:07:00,13.5,3.6,30.51,NNE,21,5.0,7.0,64,0.00,,CLR,0.00,432.00,VWS V14.00,2013-02-20 17:07:00,
2013-02-20 11:10:00,13.6,3.7,30.51,NNE,25,0.0,7.0,64,0.00,,OVC027,0.00,376.00,VWS V14.00,2013-02-20 17:10:00,
2013-02-20 11:11:00,13.9,3.6,30.52,East,98,4.0,5.0,63,0.00,,CLR,0.00,142.00,VWS V14.00,2013-02-20 17:11:00,
2013-02-20 11:12:00,14.0,3.7,30.52,ESE,103,4.0,5.0,63,0.00,,CLR,0.00,142.00,VWS V14.00,2013-02-20 17:12:00,
2013-02-20 11:13:00,13.9,3.6,30.52,East,91,1.0,5.0,63,0.00,,CLR,0.00,130.00,VWS V14.00,2013-02-20 17:13:00,
2013-02-20 11:15:00,14.0,3.7,30.52,East,89,1.0,5.0,63,0.00,,OVC027,0.00,192.00,VWS V14.00,2013-02-20 17:15:00,
2013-02-20 11:16:00,14.3,4.0,30.52,North,5,5.0,6.0,63,0.00,,CLR,0.00,288.00,VWS V14.00,2013-02-20 17:16:00,
2013-02-20 11:17:00,14.4,4.1,30.53,North,360,3.0,6.0,63,0.00,,CLR,0.00,352.00,VWS V14.00,2013-02-20 17:17:00,
2013-02-20 11:18:00,14.5,4.2,30.52,NNW,331,4.0,6.0,63,0.00,,CLR,0.00,353.00,VWS V14.00,2013-02-20 17:18:00,
2013-02-20 11:20:00,14.6,4.3,30.52,North,10,4.0,6.0,63,0.00,,OVC027,0.00,316.00,VWS V14.00,2013-02-20 17:20:00,
2013-02-20 11:21:00,14.9,4.2,30.53,SE,130,5.0,6.0,62,0.00,,CLR,0.00,320.00,VWS V14.00,2013-02-20 17:21:00,
2013-02-20 11:22:00,14.9,3.9,30.52,East,87,5.0,7.0,61,0.00,,CLR,0.00,320.00,VWS V14.00,2013-02-20 17:22:00,
2013-02-20 11:24:00,14.9,3.9,30.52,ENE,77,3.0,8.0,61,0.00,,CLR,0.00,301.00,VWS V14.00,2013-02-20 17:24:00,
2013-02-20 11:25:00,14.9,3.9,30.52,East,95,9.0,9.0,61,0.00,,OVC027,0.00,301.00,VWS V14.00,2013-02-20 17:25:00,
2013-02-20 11:26:00,14.9,3.9,30.53,East,101,1.0,9.0,61,0.00,,CLR,0.00,339.00,VWS V14.00,2013-02-20 17:26:00,
2013-02-20 11:27:00,14.9,3.9,30.53,ESE,109,1.0,9.0,61,0.00,,CLR,0.00,383.00,VWS V14.00,2013-02-20 17:27:00,
2013-02-20 11:29:00,14.9,3.9,30.53,SE,132,4.0,6.0,61,0.00,,CLR,0.00,332.00,VWS V14.00,2013-02-20 17:29:00,
2013-02-20 11:30:00,14.9,3.9,30.53,SE,140,1.0,9.0,61,0.00,,OVC027,0.00,425.00,VWS V14.00,2013-02-20 17:30:00,
2013-02-20 11:31:00,14.9,3.5,30.53,NE,51,4.0,7.0,60,0.00,,CLR,0.00,197.00,VWS V14.00,2013-02-20 17:31:00,
2013-02-20 11:32:00,14.9,3.5,30.53,NE,35,4.0,7.0,60,0.00,,CLR,0.00,202.00,VWS V14.00,2013-02-20 17:32:00,
2013-02-20 11:34:00,15.2,4.5,30.52,East,98,6.0,8.0,62,0.00,,CLR,0.00,338.00,VWS V14.00,2013-02-20 17:34:00,
2013-02-20 11:35:00,15.1,4.4,30.53,East,94,8.0,8.0,62,0.00,,OVC027,0.00,281.00,VWS V14.00,2013-02-20 17:35:00,
2013-02-20 11:37:00,15.3,4.3,30.53,ENE,78,0.0,8.0,61,0.00,,CLR,0.00,352.00,VWS V14.00,2013-02-20 17:37:00,
2013-02-20 11:39:00,15.4,4.4,30.52,ESE,107,2.0,5.0,61,0.00,,CLR,0.00,185.00,VWS V14.00,2013-02-20 17:39:00,
2013-02-20 11:40:00,15.4,4.4,30.53,ESE,111,5.0,8.0,61,0.00,,OVC027,0.00,178.00,VWS V14.00,2013-02-20 17:40:00,
2013-02-20 11:42:00,15.5,4.1,30.52,East,94,2.0,7.0,60,0.00,,CLR,0.00,192.00,VWS V14.00,2013-02-20 17:42:00,
2013-02-20 11:45:00,15.7,4.7,30.52,SE,126,1.0,4.0,61,0.00,,CLR,0.00,432.00,VWS V14.00,2013-02-20 17:45:00,
2013-02-20 11:47:00,16.0,4.6,30.52,East,81,3.0,7.0,60,0.00,,CLR,0.00,387.00,VWS V14.00,2013-02-20 17:47:00,
2013-02-20 11:48:00,16.1,4.7,30.51,East,84,3.0,7.0,60,0.00,,CLR,0.00,264.00,VWS V14.00,2013-02-20 17:48:00,
2013-02-20 11:50:00,16.2,4.4,30.51,NE,52,2.0,3.0,59,0.00,,CLR,0.00,494.00,VWS V14.00,2013-02-20 17:50:00,
2013-02-20 11:52:00,16.2,4.4,30.51,East,99,2.0,4.0,59,0.00,,CLR,0.00,311.00,VWS V14.00,2013-02-20 17:52:00,
2013-02-20 11:53:00,16.3,4.5,30.51,East,84,5.0,5.0,59,0.00,,CLR,0.00,311.00,VWS V14.00,2013-02-20 17:53:00,
2013-02-20 11:55:00,16.3,4.5,30.51,East,88,4.0,7.0,59,0.00,,CLR,0.00,255.00,VWS V14.00,2013-02-20 17:55:00,
2013-02-20 11:57:00,16.4,4.6,30.51,NE,55,3.0,7.0,59,0.00,,CLR,0.00,403.00,VWS V14.00,2013-02-20 17:57:00,
2013-02-20 11:58:00,16.5,4.7,30.51,NE,52,0.0,7.0,59,0.00,,CLR,0.00,403.00,VWS V14.00,2013-02-20 17:58:00,
2013-02-20 12:00:00,16.8,5.3,30.51,East,94,4.0,7.0,60,0.00,,CLR,0.00,390.00,VWS V14.00,2013-02-20 18:00:00,
2013-02-20 12:02:00,16.8,5.0,30.51,SE,137,4.0,7.0,59,0.00,,CLR,0.00,431.00,VWS V14.00,2013-02-20 18:02:00,
2013-02-20 12:03:00,16.8,5.0,30.51,SE,134,5.0,7.0,59,0.00,,CLR,0.00,457.00,VWS V14.00,2013-02-20 18:03:00,
2013-02-20 12:05:00,16.9,5.4,30.51,ESE,117,6.0,6.0,60,0.00,,CLR,0.00,478.00,VWS V14.00,2013-02-20 18:05:00,
2013-02-20 12:07:00,17.0,5.2,30.51,SW,231,0.0,6.0,59,0.00,,CLR,0.00,531.00,VWS V14.00,2013-02-20 18:07:00,
2013-02-20 12:08:00,17.1,5.2,30.51,SE,141,2.0,6.0,59,0.00,,CLR,0.00,582.00,VWS V14.00,2013-02-20 18:08:00,
2013-02-20 12:10:00,17.2,5.3,30.51,ESE,103,6.0,6.0,59,0.00,,CLR,0.00,645.00,VWS V14.00,2013-02-20 18:10:00,
2013-02-20 12:12:00,17.5,5.6,30.51,ESE,114,4.0,6.0,59,0.00,,CLR,0.00,650.00,VWS V14.00,2013-02-20 18:12:00,
2013-02-20 12:13:00,17.6,5.7,30.51,ESE,113,2.0,6.0,59,0.00,,CLR,0.00,613.00,VWS V14.00,2013-02-20 18:13:00,
2013-02-20 12:14:00,17.6,5.3,30.51,East,94,1.0,6.0,58,0.00,,CLR,0.00,610.00,VWS V14.00,2013-02-20 18:14:00,
2013-02-20 12:15:00,17.9,5.6,30.51,NE,50,2.0,7.0,58,0.00,,CLR,0.00,603.00,VWS V14.00,2013-02-20 18:15:00,
2013-02-20 12:17:00,18.2,5.5,30.51,East,99,1.0,9.0,57,0.00,,CLR,0.00,640.00,VWS V14.00,2013-02-20 18:17:00,
2013-02-20 12:18:00,18.3,5.6,30.51,East,99,1.0,9.0,57,0.00,,CLR,0.00,636.00,VWS V14.00,2013-02-20 18:18:00,
2013-02-20 12:19:00,18.4,6.1,30.51,East,98,2.0,9.0,58,0.00,,CLR,0.00,628.00,VWS V14.00,2013-02-20 18:19:00,
2013-02-20 12:20:00,18.5,5.8,30.51,SE,141,2.0,7.0,57,0.00,,CLR,0.00,635.00,VWS V14.00,2013-02-20 18:20:00,
2013-02-20 12:22:00,18.6,5.9,30.50,ENE,78,1.0,7.0,57,0.00,,CLR,0.00,643.00,VWS V14.00,2013-02-20 18:22:00,
2013-02-20 12:23:00,18.7,6.0,30.50,ENE,63,2.0,7.0,57,0.00,,CLR,0.00,638.00,VWS V14.00,2013-02-20 18:23:00,
2013-02-20 12:24:00,18.7,6.0,30.50,ENE,63,0.0,7.0,57,0.00,,CLR,0.00,628.00,VWS V14.00,2013-02-20 18:24:00,
2013-02-20 12:25:00,19.0,6.3,30.50,North,355,2.0,2.0,57,0.00,,CLR,0.00,610.00,VWS V14.00,2013-02-20 18:25:00,
2013-02-20 12:28:00,19.4,6.7,30.50,ESE,105,6.0,6.0,57,0.00,,CLR,0.00,580.00,VWS V14.00,2013-02-20 18:28:00,
2013-02-20 12:29:00,19.5,6.4,30.50,SE,138,0.0,6.0,56,0.00,,CLR,0.00,568.00,VWS V14.00,2013-02-20 18:29:00,
2013-02-20 12:30:00,19.5,6.4,30.50,SE,138,0.0,6.0,56,0.00,,OVC027,0.00,568.00,VWS V14.00,2013-02-20 18:30:00,
2013-02-20 12:31:00,19.6,6.5,30.50,East,86,0.0,4.0,56,0.00,,CLR,0.00,584.00,VWS V14.00,2013-02-20 18:31:00,
2013-02-20 12:33:00,19.8,6.7,30.50,East,90,9.0,9.0,56,0.00,,CLR,0.00,573.00,VWS V14.00,2013-02-20 18:33:00,
2013-02-20 12:34:00,19.9,6.3,30.50,East,88,6.0,9.0,55,0.00,,CLR,0.00,577.00,VWS V14.00,2013-02-20 18:34:00,
2013-02-20 12:35:00,19.9,6.3,30.50,East,94,7.0,9.0,55,0.00,,OVC027,0.00,577.00,VWS V14.00,2013-02-20 18:35:00,
2013-02-20 12:36:00,19.9,6.3,30.50,SE,128,5.0,8.0,55,0.00,,CLR,0.00,571.00,VWS V14.00,2013-02-20 18:36:00,
2013-02-20 12:38:00,19.8,6.3,30.50,ESE,105,4.0,8.0,55,0.00,,CLR,0.00,585.00,VWS V14.00,2013-02-20 18:38:00,
2013-02-20 12:39:00,19.8,6.3,30.49,ESE,110,2.0,8.0,55,0.00,,CLR,0.00,589.00,VWS V14.00,2013-02-20 18:39:00,
2013-02-20 12:40:00,19.8,6.3,30.49,ESE,110,2.0,8.0,55,0.00,,OVC027,0.00,589.00,VWS V14.00,2013-02-20 18:40:00,
2013-02-20 12:41:00,19.8,6.3,30.49,East,98,5.0,8.0,55,0.00,,CLR,0.00,559.00,VWS V14.00,2013-02-20 18:41:00,
2013-02-20 12:43:00,19.8,6.3,30.49,ESE,111,1.0,8.0,55,0.00,,CLR,0.00,540.00,VWS V14.00,2013-02-20 18:43:00,
2013-02-20 12:44:00,19.9,6.3,30.49,East,88,3.0,8.0,55,0.00,,CLR,0.00,552.00,VWS V14.00,2013-02-20 18:44:00,
2013-02-20 12:45:00,19.9,6.3,30.49,East,87,4.0,8.0,55,0.00,,OVC027,0.00,552.00,VWS V14.00,2013-02-20 18:45:00,
2013-02-20 12:46:00,19.9,6.3,30.49,East,79,1.0,4.0,55,0.00,,CLR,0.00,589.00,VWS V14.00,2013-02-20 18:46:00,
2013-02-20 12:48:00,20.0,6.4,30.49,SE,127,2.0,7.0,55,0.00,,CLR,0.00,536.00,VWS V14.00,2013-02-20 18:48:00,
2013-02-20 12:49:00,20.1,6.1,30.49,East,96,8.0,8.0,54,0.00,,CLR,0.00,548.00,VWS V14.00,2013-02-20 18:49:00,
2013-02-20 12:50:00,20.1,6.1,30.49,East,85,7.0,8.0,54,0.00,,,0.00,548.00,VWS V14.00,2013-02-20 18:50:00,
2013-02-20 12:51:00,19.9,5.9,30.48,East,95,6.0,7.0,54,0.00,,CLR,0.00,564.00,VWS V14.00,2013-02-20 18:51:00,
2013-02-20 12:53:00,19.8,6.3,30.48,ESE,119,4.0,7.0,55,0.00,,CLR,0.00,557.00,VWS V14.00,2013-02-20 18:53:00,
2013-02-20 12:54:00,19.8,6.3,30.48,SE,131,5.0,7.0,55,0.00,,CLR,0.00,559.00,VWS V14.00,2013-02-20 18:54:00,
2013-02-20 12:55:00,19.8,6.3,30.48,SE,131,5.0,7.0,55,0.00,,OVC027,0.00,559.00,VWS V14.00,2013-02-20 18:55:00,
2013-02-20 12:56:00,19.9,6.3,30.48,SE,146,6.0,6.0,55,0.00,,CLR,0.00,559.00,VWS V14.00,2013-02-20 18:56:00,
2013-02-20 12:58:00,20.0,6.4,30.48,ENE,64,3.0,7.0,55,0.00,,CLR,0.00,578.00,VWS V14.00,2013-02-20 18:58:00,
2013-02-20 12:59:00,20.0,6.4,30.47,ENE,63,0.0,0.0,55,0.00,,CLR,0.00,568.00,VWS V14.00,2013-02-20 18:59:00,
2013-02-20 13:00:00,20.0,6.4,30.47,ENE,62,0.0,7.0,55,0.00,,OVC027,0.00,568.00,VWS V14.00,2013-02-20 19:00:00,
2013-02-20 13:01:00,20.2,7.0,30.47,SSE,159,0.0,2.0,56,0.00,,CLR,0.00,603.00,VWS V14.00,2013-02-20 19:01:00,
2013-02-20 13:03:00,20.5,7.3,30.47,ESE,105,1.0,7.0,56,0.00,,CLR,0.00,548.00,VWS V14.00,2013-02-20 19:03:00,
2013-02-20 13:04:00,20.7,7.5,30.47,SE,146,6.0,8.0,56,0.00,,CLR,0.00,559.00,VWS V14.00,2013-02-20 19:04:00,
2013-02-20 13:05:00,20.6,7.4,30.47,East,86,3.0,7.0,56,0.00,,OVC027,0.00,559.00,VWS V14.00,2013-02-20 19:05:00,
2013-02-20 13:07:00,20.6,6.6,30.47,SE,132,5.0,9.0,54,0.00,,CLR,0.00,519.00,VWS V14.00,2013-02-20 19:07:00,
2013-02-20 13:08:00,20.6,6.6,30.46,ESE,119,2.0,9.0,54,0.00,,CLR,0.00,494.00,VWS V14.00,2013-02-20 19:08:00,
2013-02-20 13:09:00,20.5,6.9,30.46,ESE,119,1.0,2.0,55,0.00,,CLR,0.00,483.00,VWS V14.00,2013-02-20 19:09:00,
2013-02-20 13:10:00,20.5,6.9,30.46,SE,140,2.0,4.0,55,0.00,,CLR,0.00,483.00,VWS V14.00,2013-02-20 19:10:00,
2013-02-20 13:12:00,20.5,6.9,30.46,NE,51,2.0,4.0,55,0.00,,CLR,0.00,466.00,VWS V14.00,2013-02-20 19:12:00,
2013-02-20 13:13:00,20.6,9.3,30.46,East,86,5.0,6.0,61,0.00,,CLR,0.00,461.00,VWS V14.00,2013-02-20 19:13:00,
2013-02-20 13:14:00,20.7,7.5,30.46,ESE,103,1.0,5.0,56,0.00,,CLR,0.00,466.00,VWS V14.00,2013-02-20 19:14:00,
2013-02-20 13:15:00,20.7,7.1,30.46,East,101,6.0,6.0,55,0.00,,CLR,0.00,461.00,VWS V14.00,2013-02-20 19:15:00,
2013-02-20 13:17:00,20.8,7.2,30.46,SSE,152,2.0,6.0,55,0.00,,CLR,0.00,464.00,VWS V14.00,2013-02-20 19:17:00,
2013-02-20 13:18:00,20.8,7.2,30.46,ESE,106,2.0,6.0,55,0.00,,CLR,0.00,432.00,VWS V14.00,2013-02-20 19:18:00,
2013-02-20 13:20:00,20.8,7.2,30.46,East,99,1.0,4.0,55,0.00,,CLR,0.00,404.00,VWS V14.00,2013-02-20 19:20:00,
2013-02-20 13:22:00,20.8,7.2,30.46,East,100,0.0,6.0,55,0.00,,CLR,0.00,452.00,VWS V14.00,2013-02-20 19:22:00,
2013-02-20 13:23:00,20.8,7.2,30.46,NE,53,4.0,6.0,55,0.00,,CLR,0.00,510.00,VWS V14.00,2013-02-20 19:23:00,
2013-02-20 13:25:00,20.9,6.9,30.45,NE,46,0.0,4.0,54,0.00,,CLR,0.00,552.00,VWS V14.00,2013-02-20 19:25:00,
2013-02-20 13:27:00,21.1,7.5,30.45,NE,54,1.0,4.0,55,0.00,,CLR,0.00,538.00,VWS V14.00,2013-02-20 19:27:00,
2013-02-20 13:28:00,21.3,7.7,30.45,East,95,5.0,7.0,55,0.00,,CLR,0.00,561.00,VWS V14.00,2013-02-20 19:28:00,
2013-02-20 13:30:00,21.4,7.3,30.45,ENE,60,5.0,11.0,54,0.00,,CLR,0.00,522.00,VWS V14.00,2013-02-20 19:30:00,
2013-02-20 13:32:00,21.2,6.8,30.45,East,80,0.0,11.0,53,0.00,,CLR,0.00,527.00,VWS V14.00,2013-02-20 19:32:00,
2013-02-20 13:33:00,21.2,7.2,30.45,ENE,78,3.0,11.0,54,0.00,,CLR,0.00,504.00,VWS V14.00,2013-02-20 19:33:00,
2013-02-20 13:35:00,21.1,7.1,30.45,East,90,4.0,5.0,54,0.00,,CLR,0.00,504.00,VWS V14.00,2013-02-20 19:35:00,
2013-02-20 13:37:00,21.1,7.1,30.44,East,80,2.0,6.0,54,0.00,,CLR,0.00,508.00,VWS V14.00,2013-02-20 19:37:00,
2013-02-20 13:38:00,21.2,7.2,30.44,East,80,0.0,6.0,54,0.00,,CLR,0.00,519.00,VWS V14.00,2013-02-20 19:38:00,
2013-02-20 13:40:00,21.4,7.8,30.44,East,101,2.0,6.0,55,0.00,,CLR,0.00,499.00,VWS V14.00,2013-02-20 19:40:00,
2013-02-20 13:41:00,21.3,7.7,30.44,ESE,104,2.0,6.0,55,0.00,,CLR,0.00,487.00,VWS V14.00,2013-02-20 19:41:00,
2013-02-20 13:42:00,21.6,7.9,30.44,ESE,113,6.0,8.0,55,0.00,,CLR,0.00,427.00,VWS V14.00,2013-02-20 19:42:00,
2013-02-20 13:43:00,21.7,8.0,30.44,East,100,5.0,11.0,55,0.00,,CLR,0.00,410.00,VWS V14.00,2013-02-20 19:43:00,
2013-02-20 13:45:00,21.7,7.2,30.44,SE,146,0.0,6.0,53,0.00,,CLR,0.00,438.00,VWS V14.00,2013-02-20 19:45:00,
2013-02-20 13:46:00,21.7,7.2,30.44,SE,146,4.0,6.0,53,0.00,,CLR,0.00,396.00,VWS V14.00,2013-02-20 19:46:00,
2013-02-20 13:48:00,21.7,7.6,30.44,East,101,4.0,6.0,54,0.00,,CLR,0.00,408.00,VWS V14.00,2013-02-20 19:48:00,
2013-02-20 13:50:00,21.9,7.8,30.44,ESE,107,7.0,7.0,54,0.00,,CLR,0.00,352.00,VWS V14.00,2013-02-20 19:50:00,
2013-02-20 13:51:00,22.0,7.9,30.44,ENE,67,5.0,8.0,54,0.00,,CLR,0.00,329.00,VWS V14.00,2013-02-20 19:51:00,
2013-02-20 13:53:00,22.0,7.5,30.44,ESE,115,4.0,8.0,53,0.00,,CLR,0.00,352.00,VWS V14.00,2013-02-20 19:53:00,
2013-02-20 13:55:00,21.9,7.8,30.44,SE,130,4.0,8.0,54,0.00,,OVC027,0.00,315.00,VWS V14.00,2013-02-20 19:55:00,
2013-02-20 13:56:00,21.9,7.8,30.43,SE,131,0.0,4.0,54,0.00,,CLR,0.00,302.00,VWS V14.00,2013-02-20 19:56:00,
2013-02-20 13:58:00,22.1,8.0,30.44,ESE,107,5.0,8.0,54,0.00,,CLR,0.00,387.00,VWS V14.00,2013-02-20 19:58:00,
2013-02-20 13:59:00,22.1,8.0,30.44,ESE,103,2.0,8.0,54,0.00,,CLR,0.00,380.00,VWS V14.00,2013-02-20 19:59:00,
2013-02-20 14:00:00,22.1,8.0,30.44,ESE,105,1.0,8.0,54,0.00,,OVC027,0.00,380.00,VWS V14.00,2013-02-20 20:00:00,
2013-02-20 14:01:00,22.1,7.6,30.43,ESE,118,2.0,6.0,53,0.00,,CLR,0.00,369.00,VWS V14.00,2013-02-20 20:01:00,
2013-02-20 14:03:00,22.2,8.1,30.43,ESE,115,5.0,9.0,54,0.00,,CLR,0.00,406.00,VWS V14.00,2013-02-20 20:03:00,
2013-02-20 14:04:00,22.2,7.7,30.43,SE,144,5.0,5.0,53,0.00,,CLR,0.00,432.00,VWS V14.00,2013-02-20 20:04:00,
2013-02-20 14:05:00,22.2,7.7,30.43,SE,133,4.0,9.0,53,0.00,,OVC027,0.00,432.00,VWS V14.00,2013-02-20 20:05:00,
2013-02-20 14:07:00,22.2,7.7,30.43,SE,140,2.0,7.0,53,0.00,,CLR,0.00,427.00,VWS V14.00,2013-02-20 20:07:00,
2013-02-20 14:08:00,22.2,7.7,30.43,East,100,4.0,7.0,53,0.00,,CLR,0.00,450.00,VWS V14.00,2013-02-20 20:08:00,
2013-02-20 14:09:00,22.2,7.7,30.43,ESE,103,4.0,4.0,53,0.00,,CLR,0.00,431.00,VWS V14.00,2013-02-20 20:09:00,
2013-02-20 14:10:00,22.2,7.7,30.43,ESE,103,4.0,7.0,53,0.00,,OVC027,0.00,431.00,VWS V14.00,2013-02-20 20:10:00,
2013-02-20 14:12:00,22.4,8.3,30.43,NE,52,1.0,7.0,54,0.00,,CLR,0.00,397.00,VWS V14.00,2013-02-20 20:12:00,
2013-02-20 14:13:00,22.4,7.9,30.43,North,355,1.0,7.0,53,0.00,,CLR,0.00,369.00,VWS V14.00,2013-02-20 20:13:00,
2013-02-20 14:14:00,22.4,7.9,30.43,North,360,2.0,2.0,53,0.00,,CLR,0.00,367.00,VWS V14.00,2013-02-20 20:14:00,
2013-02-20 14:15:00,22.4,7.9,30.43,North,360,2.0,7.0,53,0.00,,OVC027,0.00,367.00,VWS V14.00,2013-02-20 20:15:00,
2013-02-20 14:17:00,22.6,8.1,30.43,NNE,15,1.0,7.0,53,0.00,,CLR,0.00,309.00,VWS V14.00,2013-02-20 20:17:00,
2013-02-20 14:19:00,22.6,8.1,30.43,East,96,4.0,4.0,53,0.00,,CLR,0.00,313.00,VWS V14.00,2013-02-20 20:19:00,
2013-02-20 14:20:00,22.6,8.1,30.43,East,94,4.0,8.0,53,0.00,,OVC027,0.00,313.00,VWS V14.00,2013-02-20 20:20:00,
2013-02-20 14:22:00,22.8,8.2,30.42,ESE,112,5.0,8.0,53,0.00,,CLR,0.00,264.00,VWS V14.00,2013-02-20 20:22:00,
2013-02-20 14:23:00,22.8,8.2,30.42,SE,132,4.0,8.0,53,0.00,,CLR,0.00,244.00,VWS V14.00,2013-02-20 20:23:00,
2013-02-20 14:24:00,22.7,7.7,30.42,ESE,114,2.0,4.0,52,0.00,,CLR,0.00,250.00,VWS V14.00,2013-02-20 20:24:00,
2013-02-20 14:25:00,22.7,7.7,30.42,ESE,112,4.0,8.0,52,0.00,,OVC027,0.00,243.00,VWS V14.00,2013-02-20 20:25:00,
2013-02-20 14:27:00,22.4,7.9,30.42,East,86,5.0,12.0,53,0.00,,CLR,0.00,251.00,VWS V14.00,2013-02-20 20:27:00,
2013-02-20 14:28:00,22.4,7.9,30.42,East,95,8.0,12.0,53,0.00,,CLR,0.00,227.00,VWS V14.00,2013-02-20 20:28:00,
2013-02-20 14:29:00,22.3,7.4,30.42,East,92,4.0,5.0,52,0.00,,CLR,0.00,223.00,VWS V14.00,2013-02-20 20:29:00,
2013-02-20 14:30:00,22.3,7.8,30.42,ENE,76,4.0,12.0,53,0.00,,OVC027,0.00,223.00,VWS V14.00,2013-02-20 20:30:00,
2013-02-20 14:33:00,22.3,7.8,30.42,East,92,8.0,8.0,53,0.00,,CLR,0.00,234.00,VWS V14.00,2013-02-20 20:33:00,
2013-02-20 14:34:00,22.4,7.9,30.42,ENE,67,4.0,7.0,53,0.00,,CLR,0.00,232.00,VWS V14.00,2013-02-20 20:34:00,
2013-02-20 14:35:00,22.4,7.9,30.42,East,90,7.0,8.0,53,0.00,,OVC027,0.00,232.00,VWS V14.00,2013-02-20 20:35:00,
2013-02-20 14:38:00,22.4,7.4,30.42,ESE,123,0.0,8.0,52,0.00,,CLR,0.00,209.00,VWS V14.00,2013-02-20 20:38:00,
2013-02-20 14:39:00,22.5,8.4,30.42,NE,47,3.0,5.0,54,0.00,,CLR,0.00,206.00,VWS V14.00,2013-02-20 20:39:00,
2013-02-20 14:40:00,22.5,8.4,30.42,ENE,78,3.0,5.0,54,0.00,,CLR,0.00,206.00,VWS V14.00,2013-02-20 20:40:00,
2013-02-20 14:43:00,22.7,8.6,30.42,ESE,103,1.0,5.0,54,0.00,,CLR,0.00,207.00,VWS V14.00,2013-02-20 20:43:00,
2013-02-20 14:45:00,22.7,8.1,30.42,ESE,103,1.0,2.0,53,0.00,,CLR,0.00,214.00,VWS V14.00,2013-02-20 20:45:00,
2013-02-20 14:48:00,22.8,8.7,30.42,NE,54,2.0,5.0,54,0.00,,CLR,0.00,218.00,VWS V14.00,2013-02-20 20:48:00,
2013-02-20 14:50:00,22.9,8.8,30.42,East,86,2.0,2.0,54,0.00,,CLR,0.00,216.00,VWS V14.00,2013-02-20 20:50:00,
2013-02-20 14:53:00,23.0,8.9,30.42,ESE,107,2.0,6.0,54,0.00,,CLR,0.00,216.00,VWS V14.00,2013-02-20 20:53:00,
2013-02-20 14:55:00,23.0,8.4,30.42,East,86,3.0,6.0,53,0.00,,CLR,0.00,220.00,VWS V14.00,2013-02-20 20:55:00,
2013-02-20 14:56:00,23.0,8.4,30.42,ESE,113,4.0,6.0,53,0.00,,CLR,0.00,220.00,VWS V14.00,2013-02-20 20:56:00,
2013-02-20 14:58:00,22.9,8.3,30.43,ENE,75,1.0,7.0,53,0.00,,CLR,0.00,216.00,VWS V14.00,2013-02-20 20:58:00,
2013-02-20 15:00:00,22.8,8.2,30.43,ENE,74,0.0,3.0,53,0.00,,CLR,0.00,216.00,VWS V14.00,2013-02-20 21:00:00,
2013-02-20 15:01:00,22.9,7.9,30.43,ENE,75,0.0,3.0,52,0.00,,CLR,0.00,216.00,VWS V14.00,2013-02-20 21:01:00,
2013-02-20 15:03:00,22.9,8.3,30.42,ENE,75,0.0,3.0,53,0.00,,CLR,0.00,209.00,VWS V14.00,2013-02-20 21:03:00,
2013-02-20 15:04:00,22.9,8.3,30.42,ENE,75,0.0,3.0,53,0.00,,CLR,0.00,209.00,VWS V14.00,2013-02-20 21:04:00,
2013-02-20 15:05:00,22.9,8.3,30.42,ENE,74,0.0,3.0,53,0.00,,OVC027,0.00,209.00,VWS V14.00,2013-02-20 21:05:00,
2013-02-20 15:06:00,23.1,8.9,30.43,SSE,152,0.0,2.0,54,0.00,,CLR,0.00,206.00,VWS V14.00,2013-02-20 21:06:00,
2013-02-20 15:09:00,23.2,8.6,30.43,East,91,0.0,1.0,53,0.00,,CLR,0.00,199.00,VWS V14.00,2013-02-20 21:09:00,
2013-02-20 15:10:00,23.2,8.6,30.43,East,91,0.0,6.0,53,0.00,,OVC027,0.00,199.00,VWS V14.00,2013-02-20 21:10:00,
2013-02-20 15:11:00,23.2,8.6,30.43,ENE,76,1.0,5.0,53,0.00,,CLR,0.00,195.00,VWS V14.00,2013-02-20 21:11:00,
2013-02-20 15:14:00,23.2,8.6,30.42,East,92,1.0,2.0,53,0.00,,CLR,0.00,186.00,VWS V14.00,2013-02-20 21:14:00,
2013-02-20 15:15:00,23.2,8.6,30.42,East,92,2.0,5.0,53,0.00,,OVC027,0.00,186.00,VWS V14.00,2013-02-20 21:15:00,
2013-02-20 15:16:00,23.2,8.2,30.42,East,81,3.0,4.0,52,0.00,,CLR,0.00,179.00,VWS V14.00,2013-02-20 21:16:00,
2013-02-20 15:19:00,23.2,8.6,30.43,ESE,119,2.0,2.0,53,0.00,,CLR,0.00,171.00,VWS V14.00,2013-02-20 21:19:00,
2013-02-20 15:20:00,23.3,8.7,30.42,ESE,119,2.0,5.0,53,0.00,,OVC027,0.00,171.00,VWS V14.00,2013-02-20 21:20:00,
2013-02-20 15:21:00,23.3,8.7,30.43,East,99,2.0,5.0,53,0.00,,CLR,0.00,165.00,VWS V14.00,2013-02-20 21:21:00,
2013-02-20 15:24:00,23.3,8.7,30.42,ESE,105,2.0,2.0,53,0.00,,CLR,0.00,160.00,VWS V14.00,2013-02-20 21:24:00,
2013-02-20 15:25:00,23.3,8.7,30.43,ESE,105,1.0,5.0,53,0.00,,OVC027,0.00,162.00,VWS V14.00,2013-02-20 21:25:00,
2013-02-20 15:26:00,23.3,8.3,30.43,East,94,6.0,6.0,52,0.00,,CLR,0.00,160.00,VWS V14.00,2013-02-20 21:26:00,
2013-02-20 15:29:00,23.2,8.2,30.42,East,84,3.0,4.0,52,0.00,,CLR,0.00,155.00,VWS V14.00,2013-02-20 21:29:00,
2013-02-20 15:30:00,23.2,8.2,30.42,East,92,4.0,6.0,52,0.00,,OVC027,0.00,156.00,VWS V14.00,2013-02-20 21:30:00,
2013-02-20 15:31:00,23.2,8.2,30.42,East,84,5.0,5.0,52,0.00,,CLR,0.00,155.00,VWS V14.00,2013-02-20 21:31:00,
2013-02-20 15:34:00,23.2,8.6,30.42,East,88,1.0,4.0,53,0.00,,CLR,0.00,153.00,VWS V14.00,2013-02-20 21:34:00,
2013-02-20 15:35:00,23.2,8.6,30.42,East,82,2.0,6.0,53,0.00,,OVC027,0.00,153.00,VWS V14.00,2013-02-20 21:35:00,
2013-02-20 15:36:00,23.3,8.7,30.42,ESE,119,2.0,5.0,53,0.00,,CLR,0.00,156.00,VWS V14.00,2013-02-20 21:36:00,
2013-02-20 15:39:00,23.3,8.7,30.42,East,101,0.0,2.0,53,0.00,,CLR,0.00,167.00,VWS V14.00,2013-02-20 21:39:00,
2013-02-20 15:40:00,23.3,8.7,30.42,ENE,74,3.0,3.0,53,0.00,,CLR,0.00,167.00,VWS V14.00,2013-02-20 21:40:00,
2013-02-20 15:41:00,23.4,8.8,30.42,ESE,114,4.0,5.0,53,0.00,,CLR,0.00,174.00,VWS V14.00,2013-02-20 21:41:00,
2013-02-20 15:44:00,23.4,8.8,30.42,SE,124,4.0,4.0,53,0.00,,CLR,0.00,185.00,VWS V14.00,2013-02-20 21:44:00,
2013-02-20 15:45:00,23.4,8.8,30.42,ESE,123,2.0,4.0,53,0.00,,CLR,0.00,185.00,VWS V14.00,2013-02-20 21:45:00,
2013-02-20 15:46:00,23.4,9.2,30.42,ENE,65,3.0,4.0,54,0.00,,CLR,0.00,185.00,VWS V14.00,2013-02-20 21:46:00,
2013-02-20 15:50:00,23.6,9.0,30.42,East,94,2.0,7.0,53,0.00,,CLR,0.00,176.00,VWS V14.00,2013-02-20 21:50:00,
2013-02-20 15:51:00,23.6,9.0,30.42,East,95,0.0,7.0,53,0.00,,CLR,0.00,174.00,VWS V14.00,2013-02-20 21:51:00,
2013-02-20 15:55:00,23.7,9.1,30.42,ESE,118,1.0,4.0,53,0.00,,CLR,0.00,151.00,VWS V14.00,2013-02-20 21:55:00,
2013-02-20 15:56:00,23.7,9.1,30.42,East,81,5.0,5.0,53,0.00,,CLR,0.00,149.00,VWS V14.00,2013-02-20 21:56:00,
2013-02-20 16:00:00,23.7,9.1,30.42,ESE,111,2.0,5.0,53,0.00,,CLR,0.00,139.00,VWS V14.00,2013-02-20 22:00:00,
2013-02-20 16:01:00,23.7,9.1,30.42,East,101,4.0,5.0,53,0.00,,CLR,0.00,137.00,VWS V14.00,2013-02-20 22:01:00,
2013-02-20 16:02:00,23.7,9.1,30.42,East,101,1.0,5.0,53,0.00,,CLR,0.00,139.00,VWS V14.00,2013-02-20 22:02:00,
2013-02-20 16:05:00,23.6,9.0,30.42,ESE,110,2.0,6.0,53,0.00,,CLR,0.00,130.00,VWS V14.00,2013-02-20 22:05:00,
2013-02-20 16:06:00,23.6,9.0,30.42,ESE,111,4.0,6.0,53,0.00,,CLR,0.00,130.00,VWS V14.00,2013-02-20 22:06:00,
2013-02-20 16:07:00,23.5,8.9,30.42,ESE,111,1.0,6.0,53,0.00,,CLR,0.00,125.00,VWS V14.00,2013-02-20 22:07:00,
2013-02-20 16:10:00,23.6,9.0,30.42,East,96,1.0,6.0,53,0.00,,OVC027,0.00,121.00,VWS V14.00,2013-02-20 22:10:00,
2013-02-20 16:11:00,23.6,9.4,30.42,East,99,5.0,8.0,54,0.00,,CLR,0.00,118.00,VWS V14.00,2013-02-20 22:11:00,
2013-02-20 16:12:00,23.6,9.4,30.42,East,94,2.0,8.0,54,0.00,,CLR,0.00,114.00,VWS V14.00,2013-02-20 22:12:00,
2013-02-20 16:15:00,23.6,9.0,30.42,East,86,3.0,8.0,53,0.00,,OVC027,0.00,109.00,VWS V14.00,2013-02-20 22:15:00,
2013-02-20 16:16:00,23.6,9.0,30.42,East,99,5.0,6.0,53,0.00,,CLR,0.00,105.00,VWS V14.00,2013-02-20 22:16:00,
2013-02-20 16:17:00,23.6,9.0,30.42,East,92,5.0,6.0,53,0.00,,CLR,0.00,102.00,VWS V14.00,2013-02-20 22:17:00,
2013-02-20 16:20:00,23.6,9.0,30.42,East,91,1.0,6.0,53,0.00,,OVC027,0.00,100.00,VWS V14.00,2013-02-20 22:20:00,
2013-02-20 16:21:00,23.6,9.4,30.42,East,87,2.0,5.0,54,0.00,,CLR,0.00,98.00,VWS V14.00,2013-02-20 22:21:00,
2013-02-20 16:22:00,23.7,9.9,30.42,East,88,2.0,5.0,55,0.00,,CLR,0.00,97.00,VWS V14.00,2013-02-20 22:22:00,
2013-02-20 16:25:00,23.8,9.6,30.42,East,90,1.0,7.0,54,0.00,,OVC027,0.00,95.00,VWS V14.00,2013-02-20 22:25:00,
2013-02-20 16:26:00,23.8,9.6,30.42,East,90,1.0,4.0,54,0.00,,CLR,0.00,91.00,VWS V14.00,2013-02-20 22:26:00,
2013-02-20 16:27:00,23.7,9.1,30.42,ENE,64,1.0,4.0,53,0.00,,CLR,0.00,88.00,VWS V14.00,2013-02-20 22:27:00,
2013-02-20 16:30:00,23.7,9.5,30.42,ENE,75,2.0,4.0,54,0.00,,OVC027,0.00,86.00,VWS V14.00,2013-02-20 22:30:00,
2013-02-20 16:31:00,23.7,9.5,30.41,East,87,1.0,3.0,54,0.00,,CLR,0.00,84.00,VWS V14.00,2013-02-20 22:31:00,
2013-02-20 16:32:00,23.7,9.9,30.41,East,86,4.0,8.0,55,0.00,,CLR,0.00,84.00,VWS V14.00,2013-02-20 22:32:00,
2013-02-20 16:33:00,23.7,9.5,30.41,ESE,111,5.0,8.0,54,0.00,,CLR,0.00,84.00,VWS V14.00,2013-02-20 22:33:00,
2013-02-20 16:35:00,23.7,9.5,30.41,ESE,108,2.0,8.0,54,0.00,,OVC027,0.00,83.00,VWS V14.00,2013-02-20 22:35:00,
2013-02-20 16:36:00,23.7,9.5,30.41,East,94,5.0,5.0,54,0.00,,CLR,0.00,79.00,VWS V14.00,2013-02-20 22:36:00,
2013-02-20 16:38:00,23.6,9.4,30.41,East,90,2.0,5.0,54,0.00,,CLR,0.00,77.00,VWS V14.00,2013-02-20 22:38:00,
2013-02-20 16:39:00,23.6,9.4,30.41,ESE,106,2.0,7.0,54,0.00,,CLR,0.00,74.00,VWS V14.00,2013-02-20 22:39:00,
2013-02-20 16:40:00,23.6,9.4,30.41,East,94,4.0,6.0,54,0.00,,OVC027,0.00,76.00,VWS V14.00,2013-02-20 22:40:00,
2013-02-20 16:41:00,23.6,9.8,30.41,East,92,6.0,7.0,55,0.00,,CLR,0.00,70.00,VWS V14.00,2013-02-20 22:41:00,
2013-02-20 16:42:00,23.6,9.8,30.41,ESE,102,4.0,7.0,55,0.00,,CLR,0.00,69.00,VWS V14.00,2013-02-20 22:42:00,
2013-02-20 16:44:00,23.6,9.8,30.41,ESE,104,2.0,7.0,55,0.00,,CLR,0.00,67.00,VWS V14.00,2013-02-20 22:44:00,
2013-02-20 16:45:00,23.6,9.4,30.41,East,84,3.0,7.0,54,0.00,,CLR,0.00,65.00,VWS V14.00,2013-02-20 22:45:00,
2013-02-20 16:47:00,23.6,9.8,30.41,East,89,2.0,7.0,55,0.00,,CLR,0.00,60.00,VWS V14.00,2013-02-20 22:47:00,
2013-02-20 16:49:00,23.6,9.4,30.41,East,88,3.0,7.0,54,0.00,,CLR,0.00,56.00,VWS V14.00,2013-02-20 22:49:00,
2013-02-20 16:50:00,23.6,9.8,30.41,East,82,2.0,6.0,55,0.00,,CLR,0.00,53.00,VWS V14.00,2013-02-20 22:50:00,
2013-02-20 16:52:00,23.6,9.8,30.41,ENE,66,7.0,7.0,55,0.00,,CLR,0.00,51.00,VWS V14.00,2013-02-20 22:52:00,
2013-02-20 16:54:00,23.7,9.5,30.41,East,88,2.0,7.0,54,0.00,,CLR,0.00,47.00,VWS V14.00,2013-02-20 22:54:00,
2013-02-20 16:55:00,23.7,9.5,30.41,East,88,2.0,7.0,54,0.00,,OVC027,0.00,47.00,VWS V14.00,2013-02-20 22:55:00,
2013-02-20 16:56:00,23.7,9.5,30.41,ESE,113,0.0,5.0,54,0.00,,CLR,0.00,47.00,VWS V14.00,2013-02-20 22:56:00,
2013-02-20 16:57:00,23.6,9.8,30.41,ESE,106,1.0,5.0,55,0.00,,CLR,0.00,46.00,VWS V14.00,2013-02-20 22:57:00,
2013-02-20 16:59:00,23.7,9.9,30.40,NE,53,1.0,2.0,55,0.00,,CLR,0.00,44.00,VWS V14.00,2013-02-20 22:59:00,
2013-02-20 17:00:00,23.7,9.9,30.41,NE,53,2.0,5.0,55,0.00,,OVC027,0.00,44.00,VWS V14.00,2013-02-20 23:00:00,
2013-02-20 17:01:00,23.6,9.4,30.41,East,87,3.0,7.0,54,0.00,,CLR,0.00,42.00,VWS V14.00,2013-02-20 23:01:00,
2013-02-20 17:02:00,23.6,9.4,30.41,East,98,2.0,7.0,54,0.00,,CLR,0.00,42.00,VWS V14.00,2013-02-20 23:02:00,
2013-02-20 17:04:00,23.6,9.8,30.41,East,101,4.0,5.0,55,0.00,,CLR,0.00,40.00,VWS V14.00,2013-02-20 23:04:00,
2013-02-20 17:05:00,23.6,9.8,30.41,ESE,102,2.0,7.0,55,0.00,,OVC027,0.00,40.00,VWS V14.00,2013-02-20 23:05:00,
2013-02-20 17:06:00,23.6,9.8,30.41,ESE,103,7.0,7.0,55,0.00,,CLR,0.00,39.00,VWS V14.00,2013-02-20 23:06:00,
2013-02-20 17:07:00,23.6,9.8,30.41,ENE,71,4.0,7.0,55,0.00,,CLR,0.00,37.00,VWS V14.00,2013-02-20 23:07:00,
2013-02-20 17:09:00,23.6,9.8,30.41,East,84,4.0,6.0,55,0.00,,CLR,0.00,35.00,VWS V14.00,2013-02-20 23:09:00,
2013-02-20 17:10:00,23.6,9.8,30.41,East,91,6.0,7.0,55,0.00,,OVC027,0.00,35.00,VWS V14.00,2013-02-20 23:10:00,
2013-02-20 17:11:00,23.6,9.8,30.41,East,96,2.0,6.0,55,0.00,,CLR,0.00,33.00,VWS V14.00,2013-02-20 23:11:00,
2013-02-20 17:12:00,23.6,9.8,30.41,ESE,113,2.0,6.0,55,0.00,,CLR,0.00,33.00,VWS V14.00,2013-02-20 23:12:00,
2013-02-20 17:14:00,23.6,9.8,30.40,East,88,4.0,5.0,55,0.00,,CLR,0.00,32.00,VWS V14.00,2013-02-20 23:14:00,
2013-02-20 17:15:00,23.6,9.8,30.41,East,82,3.0,6.0,55,0.00,,OVC027,0.00,33.00,VWS V14.00,2013-02-20 23:15:00,
2013-02-20 17:17:00,23.6,9.4,30.40,East,88,3.0,5.0,54,0.00,,CLR,0.00,30.00,VWS V14.00,2013-02-20 23:17:00,
2013-02-20 17:19:00,23.6,9.4,30.40,East,89,3.0,5.0,54,0.00,,CLR,0.00,30.00,VWS V14.00,2013-02-20 23:19:00,
2013-02-20 17:20:00,23.6,9.4,30.41,East,87,5.0,5.0,54,0.00,,OVC027,0.00,30.00,VWS V14.00,2013-02-20 23:20:00,
2013-02-20 17:22:00,23.6,9.8,30.40,East,92,1.0,5.0,55,0.00,,CLR,0.00,26.00,VWS V14.00,2013-02-20 23:22:00,
2013-02-20 17:25:00,23.6,9.8,30.40,East,80,2.0,5.0,55,0.00,,CLR,0.00,25.00,VWS V14.00,2013-02-20 23:25:00,
2013-02-20 17:27:00,23.6,10.2,30.40,ESE,121,4.0,5.0,56,0.00,,CLR,0.00,23.00,VWS V14.00,2013-02-20 23:27:00,
2013-02-20 17:28:00,23.7,10.3,30.40,East,93,7.0,7.0,56,0.00,,CLR,0.00,23.00,VWS V14.00,2013-02-20 23:28:00,
2013-02-20 17:30:00,23.7,10.7,30.40,East,80,4.0,4.0,57,0.00,,CLR,0.00,21.00,VWS V14.00,2013-02-20 23:30:00,
2013-02-20 17:32:00,23.7,10.3,30.40,East,101,2.0,5.0,56,0.00,,CLR,0.00,19.00,VWS V14.00,2013-02-20 23:32:00,
2013-02-20 17:33:00,23.7,10.3,30.40,ENE,77,2.0,5.0,56,0.00,,CLR,0.00,18.00,VWS V14.00,2013-02-20 23:33:00,
2013-02-20 17:35:00,23.7,10.3,30.40,East,96,0.0,4.0,56,0.00,,CLR,0.00,14.00,VWS V14.00,2013-02-20 23:35:00,
2013-02-20 17:37:00,23.6,10.6,30.40,ESE,110,1.0,5.0,57,0.00,,CLR,0.00,12.00,VWS V14.00,2013-02-20 23:37:00,
2013-02-20 17:38:00,23.6,10.6,30.40,ENE,75,1.0,5.0,57,0.00,,CLR,0.00,12.00,VWS V14.00,2013-02-20 23:38:00,
2013-02-20 17:39:00,23.6,10.6,30.40,ESE,106,5.0,5.0,57,0.00,,CLR,0.00,12.00,VWS V14.00,2013-02-20 23:39:00,
2013-02-20 17:40:00,23.6,10.6,30.40,ESE,106,5.0,5.0,57,0.00,,OVC027,0.00,12.00,VWS V14.00,2013-02-20 23:40:00,
2013-02-20 17:41:00,23.6,10.2,30.40,East,84,3.0,6.0,56,0.00,,CLR,0.00,9.00,VWS V14.00,2013-02-20 23:41:00,
2013-02-20 17:42:00,23.6,10.2,30.40,East,100,5.0,6.0,56,0.00,,CLR,0.00,7.00,VWS V14.00,2013-02-20 23:42:00,
2013-02-20 17:43:00,23.6,10.2,30.40,East,96,2.0,6.0,56,0.00,,CLR,0.00,5.00,VWS V14.00,2013-02-20 23:43:00,
2013-02-20 17:44:00,23.6,10.2,30.40,East,96,5.0,6.0,56,0.00,,CLR,0.00,5.00,VWS V14.00,2013-02-20 23:44:00,
2013-02-20 17:45:00,23.6,10.2,30.40,East,96,5.0,6.0,56,0.00,,OVC027,0.00,5.00,VWS V14.00,2013-02-20 23:45:00,
2013-02-20 17:46:00,23.5,10.1,30.40,East,84,4.0,5.0,56,0.00,,CLR,0.00,0.00,VWS V14.00,2013-02-20 23:46:00,
2013-02-20 17:48:00,23.5,10.5,30.40,East,93,2.0,6.0,57,0.00,,CLR,0.00,0.00,VWS V14.00,2013-02-20 23:48:00,
2013-02-20 17:49:00,23.5,10.1,30.40,East,97,4.0,4.0,56,0.00,,CLR,0.00,0.00,VWS V14.00,2013-02-20 23:49:00,
2013-02-20 17:50:00,23.4,10.0,30.40,ESE,105,4.0,7.0,56,0.00,,OVC027,0.00,0.00,VWS V14.00,2013-02-20 23:50:00,
2013-02-20 17:51:00,23.4,10.4,30.40,ESE,106,4.0,5.0,57,0.00,,CLR,0.00,0.00,VWS V14.00,2013-02-20 23:51:00,
2013-02-20 17:53:00,23.4,10.0,30.40,East,95,2.0,5.0,56,0.00,,CLR,0.00,0.00,VWS V14.00,2013-02-20 23:53:00,
2013-02-20 17:54:00,23.4,10.0,30.40,East,94,1.0,5.0,56,0.00,,CLR,0.00,0.00,VWS V14.00,2013-02-20 23:54:00,
2013-02-20 17:55:00,23.4,10.0,30.40,East,95,2.0,5.0,56,0.00,,OVC027,0.00,0.00,VWS V14.00,2013-02-20 23:55:00,
2013-02-20 17:56:00,23.3,9.9,30.40,East,98,6.0,7.0,56,0.00,,CLR,0.00,0.00,VWS V14.00,2013-02-20 23:56:00,
2013-02-20 17:58:00,23.3,10.3,30.40,East,90,4.0,7.0,57,0.00,,CLR,0.00,0.00,VWS V14.00,2013-02-20 23:58:00,
2013-02-20 17:59:00,23.3,10.3,30.40,East,91,6.0,7.0,57,0.00,,CLR,0.00,0.00,VWS V14.00,2013-02-20 23:59:00,
2013-02-20 18:00:00,23.3,10.3,30.40,East,98,6.0,7.0,57,0.00,,OVC027,0.00,0.00,VWS V14.00,2013-02-21 00:00:00,
2013-02-20 18:02:00,23.3,10.3,30.40,East,90,2.0,6.0,57,0.00,,CLR,0.00,0.00,VWS V14.00,2013-02-21 00:02:00,
2013-02-20 18:03:00,23.3,10.3,30.39,East,85,1.0,6.0,57,0.00,,CLR,0.00,0.00,VWS V14.00,2013-02-21 00:03:00,
2013-02-20 18:04:00,23.3,10.3,30.39,East,85,3.0,6.0,57,0.00,,CLR,0.00,0.00,VWS V14.00,2013-02-21 00:04:00,
2013-02-20 18:05:00,23.3,10.3,30.39,East,86,2.0,6.0,57,0.00,,OVC027,0.00,0.00,VWS V14.00,2013-02-21 00:05:00,
2013-02-20 18:07:00,23.3,10.3,30.40,ESE,105,6.0,7.0,57,0.00,,CLR,0.00,0.00,VWS V14.00,2013-02-21 00:07:00,
2013-02-20 18:08:00,23.3,10.3,30.39,East,97,2.0,7.0,57,0.00,,CLR,0.00,0.00,VWS V14.00,2013-02-21 00:08:00,
2013-02-20 18:09:00,23.3,10.3,30.39,East,87,4.0,7.0,57,0.00,,CLR,0.00,0.00,VWS V14.00,2013-02-21 00:09:00,
2013-02-20 18:10:00,23.3,10.7,30.39,East,88,2.0,5.0,58,0.00,,CLR,0.00,0.00,VWS V14.00,2013-02-21 00:10:00,
2013-02-20 18:12:00,23.3,10.3,30.39,ENE,72,3.0,6.0,57,0.00,,CLR,0.00,0.00,VWS V14.00,2013-02-21 00:12:00,
2013-02-20 18:14:00,23.3,10.7,30.39,ENE,71,2.0,6.0,58,0.00,,CLR,0.00,0.00,VWS V14.00,2013-02-21 00:14:00,
2013-02-20 18:15:00,23.3,10.7,30.39,ENE,62,2.0,6.0,58,0.00,,CLR,0.00,0.00,VWS V14.00,2013-02-21 00:15:00,
2013-02-20 18:17:00,23.3,10.3,30.39,ENE,77,3.0,8.0,57,0.00,,CLR,0.00,0.00,VWS V14.00,2013-02-21 00:17:00,
2013-02-20 18:19:00,23.3,10.7,30.38,East,88,4.0,9.0,58,0.00,,CLR,0.00,0.00,VWS V14.00,2013-02-21 00:19:00,
2013-02-20 18:20:00,23.3,10.7,30.38,ENE,69,5.0,9.0,58,0.00,,CLR,0.00,0.00,VWS V14.00,2013-02-21 00:20:00,
2013-02-20 18:22:00,23.3,10.3,30.38,East,84,3.0,9.0,57,0.00,,CLR,0.00,0.00,VWS V14.00,2013-02-21 00:22:00,
2013-02-20 18:24:00,23.3,10.3,30.38,ENE,74,4.0,9.0,57,0.00,,CLR,0.00,0.00,VWS V14.00,2013-02-21 00:24:00,
2013-02-20 18:25:00,23.3,10.3,30.38,East,86,3.0,7.0,57,0.00,,CLR,0.00,0.00,VWS V14.00,2013-02-21 00:25:00,
2013-02-20 18:28:00,23.3,10.7,30.38,East,89,5.0,7.0,58,0.00,,CLR,0.00,0.00,VWS V14.00,2013-02-21 00:28:00,
2013-02-20 18:29:00,23.3,10.7,30.38,ENE,76,5.0,6.0,58,0.00,,CLR,0.00,0.00,VWS V14.00,2013-02-21 00:29:00,
2013-02-20 18:30:00,23.3,10.3,30.38,East,87,6.0,7.0,57,0.00,,CLR,0.00,0.00,VWS V14.00,2013-02-21 00:30:00,
2013-02-20 18:33:00,23.3,10.7,30.38,East,82,4.0,8.0,58,0.00,,CLR,0.00,0.00,VWS V14.00,2013-02-21 00:33:00,
2013-02-20 18:34:00,23.3,10.7,30.37,East,81,4.0,4.0,58,0.00,,CLR,0.00,0.00,VWS V14.00,2013-02-21 00:34:00,
2013-02-20 18:35:00,23.3,10.7,30.37,East,92,7.0,7.0,58,0.00,,CLR,0.00,0.00,VWS V14.00,2013-02-21 00:35:00,
2013-02-20 18:38:00,23.3,10.3,30.37,East,84,5.0,10.0,57,0.00,,CLR,0.00,0.00,VWS V14.00,2013-02-21 00:38:00,
2013-02-20 18:39:00,23.3,10.3,30.37,ESE,105,4.0,4.0,57,0.00,,CLR,0.00,0.00,VWS V14.00,2013-02-21 00:39:00,
2013-02-20 18:40:00,23.3,10.7,30.37,ENE,71,3.0,5.0,58,0.00,,CLR,0.00,0.00,VWS V14.00,2013-02-21 00:40:00,
2013-02-20 18:43:00,23.3,10.7,30.37,East,87,4.0,7.0,58,0.00,,CLR,0.00,0.00,VWS V14.00,2013-02-21 00:43:00,
2013-02-20 18:44:00,23.3,10.7,30.37,East,80,3.0,7.0,58,0.00,,CLR,0.00,0.00,VWS V14.00,2013-02-21 00:44:00,
2013-02-20 18:45:00,23.3,10.7,30.37,ENE,73,7.0,7.0,58,0.00,,CLR,0.00,0.00,VWS V14.00,2013-02-21 00:45:00,
2013-02-20 18:48:00,23.3,10.3,30.37,ENE,75,5.0,12.0,57,0.00,,CLR,0.00,0.00,VWS V14.00,2013-02-21 00:48:00,
2013-02-20 18:49:00,23.3,10.7,30.37,ENE,76,7.0,7.0,58,0.00,,CLR,0.00,0.00,VWS V14.00,2013-02-21 00:49:00,
2013-02-20 18:50:00,23.3,10.7,30.37,East,90,5.0,12.0,58,0.00,,OVC027,0.00,0.00,VWS V14.00,2013-02-21 00:50:00,
2013-02-20 18:51:00,23.3,10.7,30.37,ENE,59,5.0,8.0,58,0.00,,CLR,0.00,0.00,VWS V14.00,2013-02-21 00:51:00,
2013-02-20 18:53:00,23.3,10.7,30.37,ENE,74,4.0,8.0,58,0.00,,CLR,0.00,0.00,VWS V14.00,2013-02-21 00:53:00,
2013-02-20 18:54:00,23.3,10.7,30.37,NE,53,3.0,5.0,58,0.00,,CLR,0.00,0.00,VWS V14.00,2013-02-21 00:54:00,
2013-02-20 18:55:00,23.3,10.7,30.37,East,89,5.0,8.0,58,0.00,,OVC027,0.00,0.00,VWS V14.00,2013-02-21 00:55:00,
2013-02-20 18:56:00,23.3,10.7,30.38,East,84,7.0,9.0,58,0.00,,CLR,0.00,0.00,VWS V14.00,2013-02-21 00:56:00,
2013-02-20 18:58:00,23.3,10.7,30.37,ENE,69,7.0,11.0,58,0.00,,CLR,0.00,0.00,VWS V14.00,2013-02-21 00:58:00,
2013-02-20 18:59:00,23.3,10.7,30.37,East,90,7.0,10.0,58,0.00,,CLR,0.00,0.00,VWS V14.00,2013-02-21 00:59:00,
2013-02-20 19:00:00,23.3,11.1,30.37,ENE,72,6.0,10.0,59,0.00,,SCT120,0.00,0.00,VWS V14.00,2013-02-21 01:00:00,
2013-02-20 19:01:00,23.3,11.1,30.37,East,86,5.0,10.0,59,0.00,,SCT120,0.00,0.00,VWS V14.00,2013-02-21 01:01:00,
2013-02-20 19:03:00,23.3,11.1,30.37,East,80,7.0,10.0,59,0.00,,SCT120,0.00,0.00,VWS V14.00,2013-02-21 01:03:00,
2013-02-20 19:05:00,23.3,10.7,30.37,ENE,66,5.0,10.0,58,0.00,,SCT120,0.00,0.00,VWS V14.00,2013-02-21 01:05:00,
2013-02-20 19:06:00,23.3,10.7,30.37,East,88,4.0,10.0,58,0.00,,SCT120,0.00,0.00,VWS V14.00,2013-02-21 01:06:00,
2013-02-20 19:08:00,23.3,11.1,30.37,ESE,103,8.0,10.0,59,0.00,,SCT120,0.00,0.00,VWS V14.00,2013-02-21 01:08:00,
2013-02-20 19:10:00,23.3,11.1,30.37,ENE,72,6.0,9.0,59,0.00,,SCT120,0.00,0.00,VWS V14.00,2013-02-21 01:10:00,
2013-02-20 19:11:00,23.3,11.1,30.37,East,81,4.0,9.0,59,0.00,,SCT120,0.00,0.00,VWS V14.00,2013-02-21 01:11:00,
2013-02-20 19:13:00,23.3,11.1,30.37,ENE,77,5.0,10.0,59,0.00,,SCT120,0.00,0.00,VWS V14.00,2013-02-21 01:13:00,
2013-02-20 19:15:00,23.3,10.7,30.37,East,84,5.0,8.0,58,0.00,,SCT120,0.00,0.00,VWS V14.00,2013-02-21 01:15:00,
2013-02-20 19:16:00,23.3,10.7,30.37,East,90,4.0,8.0,58,0.00,,SCT120,0.00,0.00,VWS V14.00,2013-02-21 01:16:00,
2013-02-20 19:19:00,23.3,11.1,30.38,East,90,2.0,10.0,59,0.00,,SCT120,0.00,0.00,VWS V14.00,2013-02-21 01:19:00,
2013-02-20 19:20:00,23.3,11.5,30.38,East,87,4.0,8.0,60,0.00,,SCT120,0.00,0.00,VWS V14.00,2013-02-21 01:20:00,
2013-02-20 19:21:00,23.3,11.1,30.38,ENE,74,6.0,12.0,59,0.00,,SCT120,0.00,0.00,VWS V14.00,2013-02-21 01:21:00,
2013-02-20 19:24:00,23.3,11.1,30.38,East,94,4.0,12.0,59,0.00,,SCT120,0.00,0.00,VWS V14.00,2013-02-21 01:24:00,
2013-02-20 19:25:00,23.3,11.5,30.38,ESE,102,4.0,6.0,60,0.00,,SCT120,0.00,0.00,VWS V14.00,2013-02-21 01:25:00,
2013-02-20 19:26:00,23.3,11.5,30.38,East,91,6.0,6.0,60,0.00,,SCT120,0.00,0.00,VWS V14.00,2013-02-21 01:26:00,
2013-02-20 19:29:00,23.3,11.5,30.38,East,98,1.0,7.0,60,0.00,,SCT120,0.00,0.00,VWS V14.00,2013-02-21 01:29:00,
2013-02-20 19:30:00,23.3,11.5,30.38,East,98,1.0,7.0,60,0.00,,OVC027,0.00,0.00,VWS V14.00,2013-02-21 01:30:00,
2013-02-20 19:31:00,23.3,11.5,30.38,East,98,4.0,7.0,60,0.00,,SCT120,0.00,0.00,VWS V14.00,2013-02-21 01:31:00,
2013-02-20 19:34:00,23.3,11.1,30.38,East,88,5.0,7.0,59,0.00,,SCT120,0.00,0.00,VWS V14.00,2013-02-21 01:34:00,
2013-02-20 19:35:00,23.3,11.1,30.38,East,81,7.0,9.0,59,0.00,,OVC027,0.00,0.00,VWS V14.00,2013-02-21 01:35:00,
2013-02-20 19:36:00,23.3,11.1,30.38,ENE,70,6.0,9.0,59,0.00,,SCT120,0.00,0.00,VWS V14.00,2013-02-21 01:36:00,
2013-02-20 19:37:00,23.3,11.1,30.38,ENE,67,4.0,9.0,59,0.00,,SCT120,0.00,0.00,VWS V14.00,2013-02-21 01:37:00,
2013-02-20 19:39:00,23.3,11.1,30.38,East,96,4.0,8.0,59,0.00,,SCT120,0.00,0.00,VWS V14.00,2013-02-21 01:39:00,
2013-02-20 19:40:00,23.3,11.1,30.38,East,89,6.0,9.0,59,0.00,,OVC027,0.00,0.00,VWS V14.00,2013-02-21 01:40:00,
2013-02-20 19:41:00,23.3,11.5,30.38,East,80,4.0,8.0,60,0.00,,CLR,0.00,0.00,VWS V14.00,2013-02-21 01:41:00,
2013-02-20 19:42:00,23.3,11.5,30.38,East,95,2.0,8.0,60,0.00,,CLR,0.00,0.00,VWS V14.00,2013-02-21 01:42:00,
2013-02-20 19:44:00,23.3,11.5,30.39,ENE,78,4.0,6.0,60,0.00,,CLR,0.00,0.00,VWS V14.00,2013-02-21 01:44:00,
2013-02-20 19:45:00,23.3,11.5,30.39,SE,124,4.0,8.0,60,0.00,,OVC027,0.00,0.00,VWS V14.00,2013-02-21 01:45:00,
2013-02-20 19:46:00,23.3,11.1,30.39,East,97,6.0,7.0,59,0.00,,CLR,0.00,0.00,VWS V14.00,2013-02-21 01:46:00,
2013-02-20 19:47:00,23.3,11.5,30.39,East,94,2.0,7.0,60,0.00,,CLR,0.00,0.00,VWS V14.00,2013-02-21 01:47:00,
2013-02-20 19:49:00,23.3,11.9,30.39,East,94,2.0,5.0,61,0.00,,CLR,0.00,0.00,VWS V14.00,2013-02-21 01:49:00,
2013-02-20 19:50:00,23.3,11.9,30.39,East,100,2.0,7.0,61,0.00,,OVC027,0.00,0.00,VWS V14.00,2013-02-21 01:50:00,
2013-02-20 19:51:00,23.3,11.9,30.39,East,88,4.0,6.0,61,0.00,,CLR,0.00,0.00,VWS V14.00,2013-02-21 01:51:00,
2013-02-20 19:52:00,23.3,11.5,30.39,ESE,105,2.0,7.0,60,0.00,,CLR,0.00,0.00,VWS V14.00,2013-02-21 01:52:00,
2013-02-20 19:55:00,23.3,11.9,30.39,East,83,4.0,5.0,61,0.00,,CLR,0.00,0.00,VWS V14.00,2013-02-21 01:55:00,
2013-02-20 19:56:00,23.3,11.5,30.39,ESE,106,2.0,6.0,60,0.00,,CLR,0.00,0.00,VWS V14.00,2013-02-21 01:56:00,
2013-02-20 19:57:00,23.3,11.5,30.39,East,90,4.0,6.0,60,0.00,,CLR,0.00,0.00,VWS V14.00,2013-02-21 01:57:00,
2013-02-20 20:00:00,23.3,11.5,30.39,East,89,4.0,6.0,60,0.00,,CLR,0.00,0.00,VWS V14.00,2013-02-21 02:00:00,
2013-02-20 20:01:00,23.3,11.9,30.39,East,97,1.0,8.0,61,0.00,,CLR,0.00,0.00,VWS V14.00,2013-02-21 02:01:00,
2013-02-20 20:02:00,23.3,11.9,30.39,East,81,3.0,8.0,61,0.00,,CLR,0.00,0.00,VWS V14.00,2013-02-21 02:02:00,
2013-02-20 20:05:00,23.3,11.9,30.39,East,92,5.0,8.0,61,0.00,,CLR,0.00,0.00,VWS V14.00,2013-02-21 02:05:00,
2013-02-20 20:06:00,23.3,11.5,30.39,ESE,103,6.0,8.0,60,0.00,,CLR,0.00,0.00,VWS V14.00,2013-02-21 02:06:00,
2013-02-20 20:07:00,23.3,11.5,30.39,ESE,103,2.0,8.0,60,0.00,,CLR,0.00,0.00,VWS V14.00,2013-02-21 02:07:00,
2013-02-20 20:08:00,23.3,11.5,30.39,East,94,5.0,8.0,60,0.00,,CLR,0.00,0.00,VWS V14.00,2013-02-21 02:08:00,
2013-02-20 20:10:00,23.3,11.9,30.39,East,93,4.0,6.0,61,0.00,,CLR,0.00,0.00,VWS V14.00,2013-02-21 02:10:00,
2013-02-20 20:11:00,23.3,11.9,30.39,East,97,4.0,8.0,61,0.00,,CLR,0.00,0.00,VWS V14.00,2013-02-21 02:11:00,
2013-02-20 20:12:00,23.3,11.9,30.39,East,82,4.0,8.0,61,0.00,,CLR,0.00,0.00,VWS V14.00,2013-02-21 02:12:00,
2013-02-20 20:13:00,23.3,11.5,30.39,East,101,4.0,8.0,60,0.00,,CLR,0.00,0.00,VWS V14.00,2013-02-21 02:13:00,
2013-02-20 20:15:00,23.3,11.9,30.39,East,87,4.0,11.0,61,0.00,,CLR,0.00,0.00,VWS V14.00,2013-02-21 02:15:00,
2013-02-20 20:17:00,23.3,11.9,30.39,East,90,6.0,11.0,61,0.00,,CLR,0.00,0.00,VWS V14.00,2013-02-21 02:17:00,
2013-02-20 20:18:00,23.3,11.9,30.39,ENE,70,4.0,11.0,61,0.00,,CLR,0.00,0.00,VWS V14.00,2013-02-21 02:18:00,
2013-02-20 20:20:00,23.3,11.9,30.39,East,85,5.0,7.0,61,0.00,,CLR,0.00,0.00,VWS V14.00,2013-02-21 02:20:00,
2013-02-20 20:22:00,23.3,12.2,30.39,ENE,71,3.0,7.0,62,0.00,,CLR,0.00,0.00,VWS V14.00,2013-02-21 02:22:00,
2013-02-20 20:23:00,23.3,12.2,30.39,East,82,5.0,9.0,62,0.00,,CLR,0.00,0.00,VWS V14.00,2013-02-21 02:23:00,
2013-02-20 20:25:00,23.3,12.2,30.39,East,96,6.0,6.0,62,0.00,,CLR,0.00,0.00,VWS V14.00,2013-02-21 02:25:00,
2013-02-20 20:27:00,23.3,12.2,30.39,East,84,4.0,10.0,62,0.00,,CLR,0.00,0.00,VWS V14.00,2013-02-21 02:27:00,
2013-02-20 20:28:00,23.2,12.1,30.39,East,82,3.0,10.0,62,0.00,,CLR,0.00,0.00,VWS V14.00,2013-02-21 02:28:00,
2013-02-20 20:30:00,23.2,12.1,30.39,East,90,4.0,10.0,62,0.00,,CLR,0.00,0.00,VWS V14.00,2013-02-21 02:30:00,
2013-02-20 20:32:00,23.2,12.1,30.39,ENE,70,5.0,10.0,62,0.00,,CLR,0.00,0.00,VWS V14.00,2013-02-21 02:32:00,
2013-02-20 20:33:00,23.2,12.1,30.39,East,82,5.0,10.0,62,0.00,,CLR,0.00,0.00,VWS V14.00,2013-02-21 02:33:00,
2013-02-20 20:35:00,23.2,12.1,30.39,ENE,78,4.0,10.0,62,0.00,,OVC027,0.00,0.00,VWS V14.00,2013-02-21 02:35:00,
2013-02-20 20:36:00,23.2,12.1,30.39,East,86,3.0,8.0,62,0.00,,CLR,0.00,0.00,VWS V14.00,2013-02-21 02:36:00,
2013-02-20 20:37:00,23.1,12.0,30.39,East,85,3.0,9.0,62,0.00,,CLR,0.00,0.00,VWS V14.00,2013-02-21 02:37:00,
2013-02-20 20:38:00,23.1,12.4,30.39,East,87,7.0,9.0,63,0.00,,CLR,0.00,0.00,VWS V14.00,2013-02-21 02:38:00,
2013-02-20 20:40:00,23.1,12.4,30.39,East,98,6.0,9.0,63,0.00,,OVC027,0.00,0.00,VWS V14.00,2013-02-21 02:40:00,
2013-02-20 20:41:00,23.1,12.4,30.39,East,98,4.0,9.0,63,0.00,,CLR,0.00,0.00,VWS V14.00,2013-02-21 02:41:00,
2013-02-20 20:42:00,23.1,12.4,30.39,East,82,4.0,9.0,63,0.00,,CLR,0.00,0.00,VWS V14.00,2013-02-21 02:42:00,
2013-02-20 20:43:00,23.1,12.4,30.39,East,88,5.0,9.0,63,0.00,,CLR,0.00,0.00,VWS V14.00,2013-02-21 02:43:00,
2013-02-20 20:45:00,23.1,12.4,30.39,East,81,6.0,9.0,63,0.00,,OVC027,0.00,0.00,VWS V14.00,2013-02-21 02:45:00,
2013-02-20 20:46:00,23.1,12.4,30.39,East,86,10.0,10.0,63,0.00,,CLR,0.00,0.00,VWS V14.00,2013-02-21 02:46:00,
2013-02-20 20:47:00,23.1,12.4,30.39,East,94,4.0,10.0,63,0.00,,CLR,0.00,0.00,VWS V14.00,2013-02-21 02:47:00,
2013-02-20 20:48:00,23.1,12.4,30.39,ESE,102,9.0,10.0,63,0.00,,CLR,0.00,0.00,VWS V14.00,2013-02-21 02:48:00,
2013-02-20 20:49:00,23.1,12.4,30.39,East,91,5.0,10.0,63,0.00,,CLR,0.00,0.00,VWS V14.00,2013-02-21 02:49:00,
2013-02-20 20:50:00,23.1,12.4,30.39,East,88,4.0,10.0,63,0.00,,,0.00,0.00,VWS V14.00,2013-02-21 02:50:00,
2013-02-20 20:51:00,23.0,12.6,30.39,East,88,4.0,9.0,64,0.00,,CLR,0.00,0.00,VWS V14.00,2013-02-21 02:51:00,
2013-02-20 20:52:00,23.0,14.7,30.39,East,79,4.0,9.0,70,0.00,,CLR,0.00,0.00,VWS V14.00,2013-02-21 02:52:00,
2013-02-20 20:53:00,23.0,12.6,30.39,East,98,4.0,9.0,64,0.00,,CLR,0.00,0.00,VWS V14.00,2013-02-21 02:53:00,
2013-02-20 20:54:00,23.0,13.0,30.39,East,96,5.0,9.0,65,0.00,,CLR,0.00,0.00,VWS V14.00,2013-02-21 02:54:00,
2013-02-20 20:55:00,23.0,13.0,30.39,East,96,4.0,9.0,65,0.00,,OVC027,0.00,0.00,VWS V14.00,2013-02-21 02:55:00,
2013-02-20 20:56:00,22.9,12.9,30.39,East,91,2.0,9.0,65,0.00,,CLR,0.00,0.00,VWS V14.00,2013-02-21 02:56:00,
2013-02-20 20:58:00,22.9,12.9,30.39,East,97,2.0,9.0,65,0.00,,CLR,0.00,0.00,VWS V14.00,2013-02-21 02:58:00,
2013-02-20 20:59:00,22.9,12.9,30.39,East,90,9.0,9.0,65,0.00,,CLR,0.00,0.00,VWS V14.00,2013-02-21 02:59:00,
2013-02-20 21:00:00,22.9,12.9,30.39,East,92,6.0,9.0,65,0.00,,OVC027,0.00,0.00,VWS V14.00,2013-02-21 03:00:00,
2013-02-20 21:01:00,22.8,12.8,30.39,East,94,6.0,9.0,65,0.00,,CLR,0.00,0.00,VWS V14.00,2013-02-21 03:01:00,
2013-02-20 21:03:00,22.8,12.8,30.39,East,94,5.0,9.0,65,0.00,,CLR,0.00,0.00,VWS V14.00,2013-02-21 03:03:00,
2013-02-20 21:04:00,22.8,12.8,30.39,East,85,6.0,7.0,65,0.00,,CLR,0.00,0.00,VWS V14.00,2013-02-21 03:04:00,
2013-02-20 21:05:00,22.8,12.8,30.39,East,101,5.0,9.0,65,0.00,,OVC027,0.00,0.00,VWS V14.00,2013-02-21 03:05:00,
2013-02-20 21:06:00,22.7,12.7,30.39,East,96,7.0,11.0,65,0.00,,CLR,0.00,0.00,VWS V14.00,2013-02-21 03:06:00,
2013-02-20 21:09:00,22.7,12.7,30.39,East,101,8.0,11.0,65,0.00,,CLR,0.00,0.00,VWS V14.00,2013-02-21 03:09:00,
2013-02-20 21:10:00,22.7,12.7,30.39,East,90,7.0,11.0,65,0.00,,,0.00,0.00,VWS V14.00,2013-02-21 03:10:00,
2013-02-20 21:11:00,22.7,12.7,30.39,East,83,6.0,12.0,65,0.00,,CLR,0.00,0.00,VWS V14.00,2013-02-21 03:11:00,
2013-02-20 21:14:00,22.6,12.6,30.39,East,100,5.0,12.0,65,0.00,,CLR,0.00,0.00,VWS V14.00,2013-02-21 03:14:00,
2013-02-20 21:15:00,22.6,12.6,30.39,East,101,5.0,12.0,65,0.00,,OVC027,0.00,0.00,VWS V14.00,2013-02-21 03:15:00,
2013-02-20 21:16:00,22.6,13.0,30.38,ENE,78,4.0,7.0,66,0.00,,CLR,0.00,0.00,VWS V14.00,2013-02-21 03:16:00,
2013-02-20 21:19:00,22.6,13.0,30.38,East,96,4.0,8.0,66,0.00,,CLR,0.00,0.00,VWS V14.00,2013-02-21 03:19:00,
2013-02-20 21:20:00,22.6,13.0,30.38,East,92,5.0,8.0,66,0.00,,,0.00,0.00,VWS V14.00,2013-02-21 03:20:00,
2013-02-20 21:22:00,22.5,13.2,30.39,East,86,6.0,9.0,67,0.00,,CLR,0.00,0.00,VWS V14.00,2013-02-21 03:22:00,
2013-02-20 21:24:00,22.5,13.2,30.39,East,99,8.0,11.0,67,0.00,,CLR,0.00,0.00,VWS V14.00,2013-02-21 03:24:00,
2013-02-20 21:25:00,22.5,13.2,30.39,ENE,64,6.0,11.0,67,0.00,,CLR,0.00,0.00,VWS V14.00,2013-02-21 03:25:00,
2013-02-20 21:27:00,22.5,13.2,30.39,ENE,57,5.0,11.0,67,0.00,,CLR,0.00,0.00,VWS V14.00,2013-02-21 03:27:00,
2013-02-20 21:29:00,22.5,13.2,30.39,East,96,5.0,6.0,67,0.00,,CLR,0.00,0.00,VWS V14.00,2013-02-21 03:29:00,
2013-02-20 21:30:00,22.4,13.1,30.39,ESE,102,5.0,8.0,67,0.00,,CLR,0.00,0.00,VWS V14.00,2013-02-21 03:30:00,
2013-02-20 21:32:00,22.5,13.2,30.39,ESE,113,4.0,8.0,67,0.00,,CLR,0.00,0.00,VWS V14.00,2013-02-21 03:32:00,
2013-02-20 21:34:00,22.4,13.1,30.39,East,96,4.0,7.0,67,0.00,,CLR,0.00,0.00,VWS V14.00,2013-02-21 03:34:00,
2013-02-20 21:35:00,22.4,13.1,30.39,East,96,4.0,7.0,67,0.00,,CLR,0.00,0.00,VWS V14.00,2013-02-21 03:35:00,
2013-02-20 21:37:00,22.4,13.1,30.38,East,90,6.0,9.0,67,0.00,,CLR,0.00,0.00,VWS V14.00,2013-02-21 03:37:00,
2013-02-20 21:39:00,22.4,13.1,30.39,East,90,6.0,6.0,67,0.00,,CLR,0.00,0.00,VWS V14.00,2013-02-21 03:39:00,
2013-02-20 21:40:00,22.4,13.1,30.39,East,79,5.0,7.0,67,0.00,,CLR,0.00,0.00,VWS V14.00,2013-02-21 03:40:00,
2013-02-20 21:42:00,22.4,13.1,30.38,East,94,6.0,7.0,67,0.00,,CLR,0.00,0.00,VWS V14.00,2013-02-21 03:42:00,
2013-02-20 21:45:00,22.4,13.1,30.38,East,84,6.0,9.0,67,0.00,,CLR,0.00,0.00,VWS V14.00,2013-02-21 03:45:00,
2013-02-20 21:46:00,22.4,13.1,30.38,East,86,6.0,9.0,67,0.00,,CLR,0.00,0.00,VWS V14.00,2013-02-21 03:46:00,
2013-02-20 21:47:00,22.4,13.1,30.38,East,88,6.0,9.0,67,0.00,,CLR,0.00,0.00,VWS V14.00,2013-02-21 03:47:00,
2013-02-20 21:50:00,22.4,13.1,30.38,ESE,120,2.0,7.0,67,0.00,,CLR,0.00,0.00,VWS V14.00,2013-02-21 03:50:00,
2013-02-20 21:51:00,22.4,13.1,30.38,East,94,6.0,7.0,67,0.00,,CLR,0.00,0.00,VWS V14.00,2013-02-21 03:51:00,
2013-02-20 21:53:00,22.4,13.1,30.39,ESE,104,5.0,7.0,67,0.00,,CLR,0.00,0.00,VWS V14.00,2013-02-21 03:53:00,
2013-02-20 21:55:00,22.4,13.1,30.39,East,85,5.0,7.0,67,0.00,,CLR,0.00,0.00,VWS V14.00,2013-02-21 03:55:00,
2013-02-20 21:56:00,22.3,13.0,30.39,East,92,2.0,9.0,67,0.00,,CLR,0.00,0.00,VWS V14.00,2013-02-21 03:56:00,
2013-02-20 21:58:00,22.3,13.0,30.39,East,90,7.0,9.0,67,0.00,,CLR,0.00,0.00,VWS V14.00,2013-02-21 03:58:00,
2013-02-20 22:00:00,22.3,13.0,30.39,East,86,5.0,7.0,67,0.00,,CLR,0.00,0.00,VWS V14.00,2013-02-21 04:00:00,
2013-02-20 22:01:00,22.3,13.0,30.39,East,86,5.0,7.0,67,0.00,,CLR,0.00,0.00,VWS V14.00,2013-02-21 04:01:00,
2013-02-20 22:04:00,22.2,12.9,30.39,East,91,6.0,8.0,67,0.00,,CLR,0.00,0.00,VWS V14.00,2013-02-21 04:04:00,
2013-02-20 22:05:00,22.2,12.9,30.39,East,92,5.0,7.0,67,0.00,,CLR,0.00,0.00,VWS V14.00,2013-02-21 04:05:00,
2013-02-20 22:06:00,22.2,12.9,30.39,East,91,4.0,7.0,67,0.00,,CLR,0.00,0.00,VWS V14.00,2013-02-21 04:06:00,
2013-02-20 22:07:00,22.2,12.9,30.39,East,91,7.0,7.0,67,0.00,,CLR,0.00,0.00,VWS V14.00,2013-02-21 04:07:00,
2013-02-20 22:09:00,22.1,12.8,30.39,East,85,4.0,6.0,67,0.00,,CLR,0.00,0.00,VWS V14.00,2013-02-21 04:09:00,
2013-02-20 22:10:00,22.1,12.8,30.39,East,85,5.0,6.0,67,0.00,,CLR,0.00,0.00,VWS V14.00,2013-02-21 04:10:00,
2013-02-20 22:11:00,22.1,12.8,30.39,ENE,77,5.0,11.0,67,0.00,,CLR,0.00,0.00,VWS V14.00,2013-02-21 04:11:00,
2013-02-20 22:12:00,22.0,12.7,30.39,ENE,76,4.0,11.0,67,0.00,,CLR,0.00,0.00,VWS V14.00,2013-02-21 04:12:00,
2013-02-20 22:14:00,22.0,12.7,30.39,East,101,4.0,5.0,67,0.00,,CLR,0.00,0.00,VWS V14.00,2013-02-21 04:14:00,
2013-02-20 22:15:00,22.0,12.7,30.39,East,92,5.0,5.0,67,0.00,,CLR,0.00,0.00,VWS V14.00,2013-02-21 04:15:00,
2013-02-20 22:16:00,21.9,12.6,30.39,ESE,105,4.0,6.0,67,0.00,,CLR,0.00,0.00,VWS V14.00,2013-02-21 04:16:00,
2013-02-20 22:17:00,21.9,12.6,30.39,East,86,4.0,6.0,67,0.00,,CLR,0.00,0.00,VWS V14.00,2013-02-21 04:17:00,
2013-02-20 22:19:00,21.8,12.9,30.39,East,92,2.0,6.0,68,0.00,,CLR,0.00,0.00,VWS V14.00,2013-02-21 04:19:00,
2013-02-20 22:20:00,21.8,12.9,30.39,East,91,4.0,6.0,68,0.00,,CLR,0.00,0.00,VWS V14.00,2013-02-21 04:20:00,
2013-02-20 22:21:00,21.7,12.8,30.39,ESE,103,2.0,6.0,68,0.00,,CLR,0.00,0.00,VWS V14.00,2013-02-21 04:21:00,
2013-02-20 22:23:00,21.7,12.8,30.39,ENE,77,7.0,8.0,68,0.00,,CLR,0.00,0.00,VWS V14.00,2013-02-21 04:23:00,
2013-02-20 22:24:00,21.6,12.7,30.40,ESE,123,5.0,7.0,68,0.00,,CLR,0.00,0.00,VWS V14.00,2013-02-21 04:24:00,
2013-02-20 22:25:00,21.6,12.7,30.39,East,91,1.0,7.0,68,0.00,,CLR,0.00,0.00,VWS V14.00,2013-02-21 04:25:00,
2013-02-20 22:26:00,21.6,12.7,30.39,East,90,5.0,7.0,68,0.00,,CLR,0.00,0.00,VWS V14.00,2013-02-21 04:26:00,
2013-02-20 22:28:00,21.6,13.0,30.39,East,92,4.0,8.0,69,0.00,,CLR,0.00,0.00,VWS V14.00,2013-02-21 04:28:00,
2013-02-20 22:29:00,21.5,12.6,30.39,East,94,5.0,8.0,68,0.00,,CLR,0.00,0.00,VWS V14.00,2013-02-21 04:29:00,
2013-02-20 22:30:00,21.5,12.9,30.39,ESE,103,6.0,8.0,69,0.00,,CLR,0.00,0.00,VWS V14.00,2013-02-21 04:30:00,
2013-02-20 22:32:00,21.5,12.9,30.39,East,82,4.0,8.0,69,0.00,,CLR,0.00,0.00,VWS V14.00,2013-02-21 04:32:00,
2013-02-20 22:33:00,21.4,12.8,30.39,East,94,4.0,8.0,69,0.00,,CLR,0.00,0.00,VWS V14.00,2013-02-21 04:33:00,
2013-02-20 22:35:00,21.4,12.8,30.39,East,92,4.0,6.0,69,0.00,,CLR,0.00,0.00,VWS V14.00,2013-02-21 04:35:00,
2013-02-20 22:36:00,21.3,12.7,30.39,East,92,2.0,6.0,69,0.00,,CLR,0.00,0.00,VWS V14.00,2013-02-21 04:36:00,
2013-02-20 22:37:00,21.3,12.7,30.39,East,92,2.0,6.0,69,0.00,,CLR,0.00,0.00,VWS V14.00,2013-02-21 04:37:00,
2013-02-20 22:38:00,21.2,12.6,30.39,East,80,5.0,6.0,69,0.00,,CLR,0.00,0.00,VWS V14.00,2013-02-21 04:38:00,
2013-02-20 22:40:00,21.2,12.6,30.39,East,92,4.0,5.0,69,0.00,,CLR,0.00,0.00,VWS V14.00,2013-02-21 04:40:00,
2013-02-20 22:41:00,21.1,12.9,30.39,East,96,2.0,6.0,70,0.00,,CLR,0.00,0.00,VWS V14.00,2013-02-21 04:41:00,
2013-02-20 22:43:00,21.1,12.9,30.39,East,88,4.0,6.0,70,0.00,,CLR,0.00,0.00,VWS V14.00,2013-02-21 04:43:00,
2013-02-20 22:44:00,21.0,12.8,30.39,ENE,69,6.0,6.0,70,0.00,,CLR,0.00,0.00,VWS V14.00,2013-02-21 04:44:00,
2013-02-20 22:45:00,20.9,12.7,30.39,East,87,3.0,7.0,70,0.00,,CLR,0.00,0.00,VWS V14.00,2013-02-21 04:45:00,
2013-02-20 22:46:00,20.9,12.7,30.39,East,100,1.0,7.0,70,0.00,,CLR,0.00,0.00,VWS V14.00,2013-02-21 04:46:00,
2013-02-20 22:48:00,20.9,12.7,30.39,East,84,4.0,8.0,70,0.00,,CLR,0.00,0.00,VWS V14.00,2013-02-21 04:48:00,
2013-02-20 22:49:00,20.9,13.0,30.39,East,90,4.0,8.0,71,0.00,,CLR,0.00,0.00,VWS V14.00,2013-02-21 04:49:00,
2013-02-20 22:50:00,20.9,13.0,30.39,ESE,105,8.0,13.0,71,0.00,,CLR,0.00,0.00,VWS V14.00,2013-02-21 04:50:00,
2013-02-20 22:51:00,20.9,13.0,30.39,East,84,4.0,13.0,71,0.00,,CLR,0.00,0.00,VWS V14.00,2013-02-21 04:51:00,
2013-02-20 22:53:00,20.9,13.0,30.39,East,97,4.0,13.0,71,0.00,,CLR,0.00,0.00,VWS V14.00,2013-02-21 04:53:00,
2013-02-20 22:54:00,20.9,13.0,30.39,East,84,4.0,5.0,71,0.00,,CLR,0.00,0.00,VWS V14.00,2013-02-21 04:54:00,
2013-02-20 22:55:00,20.9,13.0,30.39,East,87,3.0,6.0,71,0.00,,CLR,0.00,0.00,VWS V14.00,2013-02-21 04:55:00,
2013-02-20 22:57:00,20.8,12.9,30.39,East,84,5.0,6.0,71,0.00,,CLR,0.00,0.00,VWS V14.00,2013-02-21 04:57:00,
2013-02-20 22:58:00,20.8,12.9,30.39,East,86,5.0,9.0,71,0.00,,CLR,0.00,0.00,VWS V14.00,2013-02-21 04:58:00,
2013-02-20 22:59:00,20.8,12.9,30.40,East,86,4.0,5.0,71,0.00,,CLR,0.00,0.00,VWS V14.00,2013-02-21 04:59:00,
2013-02-20 23:00:00,20.8,12.9,30.40,East,95,4.0,6.0,71,0.00,,CLR,0.00,0.00,VWS V14.00,2013-02-21 05:00:00,
2013-02-20 23:01:00,20.8,12.9,30.40,East,81,3.0,6.0,71,0.00,,CLR,0.00,0.00,VWS V14.00,2013-02-21 05:01:00,
2013-02-20 23:05:00,20.6,13.0,30.40,East,89,3.0,4.0,72,0.00,,CLR,0.00,0.00,VWS V14.00,2013-02-21 05:05:00,
2013-02-20 23:06:00,20.6,13.0,30.40,East,97,2.0,4.0,72,0.00,,CLR,0.00,0.00,VWS V14.00,2013-02-21 05:06:00,
2013-02-20 23:10:00,20.5,13.2,30.40,East,98,1.0,5.0,73,0.00,,CLR,0.00,0.00,VWS V14.00,2013-02-21 05:10:00,
2013-02-20 23:11:00,20.4,13.1,30.40,East,89,2.0,5.0,73,0.00,,CLR,0.00,0.00,VWS V14.00,2013-02-21 05:11:00,
2013-02-20 23:15:00,20.3,13.4,30.40,East,82,5.0,7.0,74,0.00,,CLR,0.00,0.00,VWS V14.00,2013-02-21 05:15:00,
2013-02-20 23:16:00,20.3,13.4,30.39,ENE,77,5.0,8.0,74,0.00,,CLR,0.00,0.00,VWS V14.00,2013-02-21 05:16:00,
2013-02-20 23:20:00,20.3,13.4,30.39,East,96,4.0,6.0,74,0.00,,CLR,0.00,0.00,VWS V14.00,2013-02-21 05:20:00,
2013-02-20 23:21:00,20.3,13.4,30.39,ESE,113,7.0,7.0,74,0.00,,CLR,0.00,0.00,VWS V14.00,2013-02-21 05:21:00,
2013-02-20 23:25:00,20.3,13.4,30.39,East,85,4.0,8.0,74,0.00,,CLR,0.00,0.00,VWS V14.00,2013-02-21 05:25:00,
2013-02-20 23:26:00,20.3,13.4,30.39,ENE,74,4.0,8.0,74,0.00,,CLR,0.00,0.00,VWS V14.00,2013-02-21 05:26:00,
2013-02-20 23:30:00,20.3,13.7,30.39,ESE,102,6.0,7.0,75,0.00,,CLR,0.00,0.00,VWS V14.00,2013-02-21 05:30:00,
2013-02-20 23:31:00,20.3,13.7,30.39,East,95,5.0,7.0,75,0.00,,CLR,0.00,0.00,VWS V14.00,2013-02-21 05:31:00,
2013-02-20 23:35:00,20.2,13.6,30.40,East,96,2.0,7.0,75,0.00,,CLR,0.00,0.00,VWS V14.00,2013-02-21 05:35:00,
2013-02-20 23:36:00,20.2,13.6,30.40,East,97,2.0,7.0,75,0.00,,CLR,0.00,0.00,VWS V14.00,2013-02-21 05:36:00,
2013-02-20 23:40:00,20.2,13.6,30.39,ESE,102,5.0,8.0,75,0.00,,,0.00,0.00,VWS V14.00,2013-02-21 05:40:00,
2013-02-20 23:41:00,20.1,13.5,30.39,East,82,5.0,7.0,75,0.00,,CLR,0.00,0.00,VWS V14.00,2013-02-21 05:41:00,
2013-02-20 23:45:00,20.0,13.4,30.39,East,95,2.0,7.0,75,0.00,,OVC027,0.00,0.00,VWS V14.00,2013-02-21 05:45:00,
2013-02-20 23:46:00,20.0,13.4,30.39,East,88,2.0,5.0,75,0.00,,CLR,0.00,0.00,VWS V14.00,2013-02-21 05:46:00,
2013-02-20 23:50:00,19.9,13.6,30.39,East,94,6.0,8.0,76,0.00,,OVC027,0.00,0.00,VWS V14.00,2013-02-21 05:50:00,
2013-02-20 23:51:00,19.8,13.5,30.39,East,95,0.0,6.0,76,0.00,,CLR,0.00,0.00,VWS V14.00,2013-02-21 05:51:00,
2013-02-20 23:52:00,19.8,13.5,30.39,East,95,2.0,6.0,76,0.00,,CLR,0.00,0.00,VWS V14.00,2013-02-21 05:52:00,
2013-02-20 23:55:00,19.8,13.5,30.39,East,89,2.0,6.0,76,0.00,,OVC027,0.00,0.00,VWS V14.00,2013-02-21 05:55:00,
2013-02-20 23:56:00,19.7,13.4,30.39,East,89,4.0,6.0,76,0.00,,CLR,0.00,0.00,VWS V14.00,2013-02-21 05:56:00,
2013-02-20 23:57:00,19.7,13.4,30.39,East,87,5.0,6.0,76,0.00,,CLR,0.00,0.00,VWS V14.00,2013-02-21 05:57:00,